YYYY MM/DD hh:mm	Temp	Humid	W_dir	W_spd	Barom	T_int	Light	Power	Temp2	P2	Snow	T_mid	T_base	Precip
Year Date  Time 	(F)	(%)	(Deg)	(MPH)	("Hg)	(F)	/1000	(V)	(F)	-	(")	(F)	(F)	(")
2017 08/09 00:00	68.2	35.3	270.1	3.6	30.48	76.1	0.0	13.02	-39.9	0	0.0	65.9	58.7	0	1	0	0	6	77.7	72.0	0.0
2017 08/09 00:15	68.4	39.4	281.2	3.5	30.48	75.8	-0.3	13.01	-40.0	0	0.0	65.9	58.5	0	1	0	0	6	77.4	71.7	0.0
2017 08/09 00:30	68.7	35.6	325.1	1.9	30.47	75.6	0.0	13.02	-40.0	0	0.3	65.0	57.5	0	1	0	0	6	77.0	71.3	0.0
2017 08/09 00:45	69.2	31.6	23.1	3.9	30.47	75.3	0.0	13.00	-39.9	0	0.0	65.0	56.4	0	1	0	0	6	76.4	71.0	0.0
2017 08/09 01:00	68.7	38.0	273.8	0.1	30.47	75.1	0.0	12.99	-40.0	0	0.2	65.0	55.5	0	1	0	0	6	75.9	70.8	0.0
2017 08/09 01:15	69.5	31.5	105.0	4.6	30.47	74.9	-0.3	13.00	-40.0	0	0.0	65.0	55.3	0	1	0	0	6	75.4	70.5	0.0
2017 08/09 01:30	69.8	30.9	95.9	6.1	30.46	74.6	0.0	13.00	-39.9	0	0.3	65.0	54.8	0	1	0	0	6	74.8	70.2	0.0
2017 08/09 01:45	69.8	31.2	94.3	7.1	30.46	74.4	0.0	13.01	-40.0	0	0.3	64.1	54.2	0	1	0	0	6	74.3	69.9	0.0
2017 08/09 02:00	69.9	30.3	77.6	8.0	30.45	74.0	0.0	13.03	-40.0	0	0.0	65.0	53.8	0	1	0	0	6	73.9	69.5	0.0
2017 08/09 02:15	69.6	30.5	69.9	8.6	30.45	73.8	0.0	13.02	-40.0	0	0.3	65.0	53.4	0	1	0	0	6	73.6	69.4	0.0
2017 08/09 02:30	69.5	30.7	83.8	8.0	30.44	73.6	-0.3	13.03	-40.0	0	0.1	65.0	53.5	0	1	0	0	6	73.2	69.1	0.0
2017 08/09 02:45	69.6	30.1	66.3	9.9	30.44	73.3	0.0	13.02	-40.0	0	-0.1	65.9	52.4	0	1	0	0	6	72.9	68.7	0.0
2017 08/09 03:00	69.9	29.8	66.4	10.2	30.43	72.9	0.0	13.02	-39.9	0	-0.1	65.0	52.0	0	1	0	0	6	72.3	68.5	0.0
2017 08/09 03:15	69.3	29.9	69.7	10.6	30.43	72.7	0.0	13.00	-40.0	0	0.0	65.0	51.7	0	1	0	0	6	72.2	68.3	0.0
2017 08/09 03:30	69.4	30.1	74.9	12.1	30.42	72.5	-0.3	13.02	-40.0	0	0.2	64.1	51.4	0	1	0	0	6	72.0	68.1	0.0
2017 08/09 03:45	69.3	28.3	69.3	14.0	30.42	72.1	0.0	13.01	-40.0	0	0.4	63.2	51.0	0	1	0	0	6	71.4	67.7	0.0
2017 08/09 04:00	69.3	28.2	48.2	10.9	30.41	71.9	0.0	12.99	-40.0	0	0.4	63.2	50.5	0	1	0	0	6	71.2	67.5	0.0
2017 08/09 04:15	69.2	28.1	66.7	11.4	30.41	71.6	-0.3	13.02	-40.1	0	0.1	64.1	50.2	0	1	0	0	6	70.8	67.3	0.0
2017 08/09 04:30	68.8	27.9	55.4	11.9	30.40	71.3	0.0	13.02	-40.0	0	0.2	65.0	50.5	0	1	0	0	6	70.4	67.0	0.0
2017 08/09 04:45	68.7	28.2	41.4	11.2	30.40	71.0	-0.3	13.01	-40.0	0	0.4	65.0	50.4	0	1	0	0	6	70.1	66.7	0.0
2017 08/09 05:00	68.0	28.2	57.2	12.9	30.39	70.8	0.0	13.00	-40.0	0	-0.3	64.1	49.7	0	1	0	0	6	69.8	66.5	0.0
2017 08/09 05:15	67.8	29.1	63.9	10.9	30.39	70.6	0.0	12.99	-40.0	0	0.0	64.1	49.5	0	1	0	0	6	69.4	66.3	0.0
2017 08/09 05:30	68.0	29.5	52.9	13.4	30.39	70.4	1.4	13.02	-39.9	0	0.1	64.1	49.3	0	1	0	0	6	69.1	66.0	0.0
2017 08/09 05:45	67.2	30.2	67.2	12.2	30.39	70.0	24.4	13.00	-40.0	0	0.1	64.1	49.3	0	1	0	0	6	69.0	65.8	0.0
2017 08/09 06:00	67.6	30.3	52.5	12.8	30.39	69.8	179.1	13.01	-40.0	0	0.0	64.1	48.9	0	1	0	0	6	68.5	65.6	0.0
2017 08/09 06:15	67.4	30.1	61.3	15.2	30.38	69.5	403.6	13.02	-40.0	0	0.4	64.1	48.8	0	1	0	0	6	68.2	65.4	0.0
2017 08/09 06:30	67.2	30.0	71.2	12.7	30.38	69.3	557.9	13.01	-39.9	0	-0.1	65.0	49.0	0	1	0	0	6	68.0	65.1	0.0
2017 08/09 06:45	68.0	29.0	55.7	13.8	30.38	69.1	651.9	13.02	-40.0	0	0.0	65.0	49.8	0	1	0	0	6	67.8	64.9	0.0
2017 08/09 07:00	68.2	29.3	51.4	11.2	30.38	68.9	706.0	12.99	-40.0	0	-0.1	65.9	50.7	0	1	0	0	6	67.6	64.8	0.0
2017 08/09 07:15	67.9	28.7	43.3	10.8	30.38	68.7	741.0	13.01	-39.9	0	0.1	66.8	51.9	0	1	0	0	6	67.4	64.7	0.0
2017 08/09 07:30	68.7	28.3	64.3	9.8	30.38	68.4	764.0	13.02	-40.0	0	0.2	67.7	55.1	0	1	0	0	6	67.2	64.5	0.0
2017 08/09 07:45	69.2	28.4	57.2	8.5	30.37	68.2	781.0	13.02	-40.0	0	-0.2	71.3	56.6	0	1	0	0	6	67.2	64.5	0.0
2017 08/09 08:00	69.2	28.6	49.5	8.6	30.37	68.1	792.0	13.00	-40.0	0	-0.0	72.2	58.9	0	1	0	0	6	67.0	64.5	0.0
2017 08/09 08:15	69.6	28.7	88.7	9.5	30.37	68.0	800.0	13.01	-40.0	0	-0.2	71.3	60.7	0	1	0	0	6	67.2	64.6	0.0
2017 08/09 08:30	69.9	28.5	17.1	9.7	30.37	67.9	807.0	12.99	-40.0	0	0.2	72.2	65.4	0	1	0	0	6	67.2	64.7	0.0
2017 08/09 08:45	71.2	28.7	71.1	9.5	30.38	67.8	813.0	13.00	-39.9	0	0.1	73.1	69.9	0	1	0	0	6	67.4	64.9	0.0
2017 08/09 09:00	71.2	27.0	91.8	11.3	30.38	67.8	818.0	12.99	-40.0	0	0.3	74.9	72.3	0	1	0	0	6	67.8	65.4	0.0
2017 08/09 09:15	71.8	26.8	55.0	11.8	30.38	67.9	823.0	12.99	-40.0	0	0.6	74.0	74.4	0	1	0	0	6	68.3	66.0	0.0
2017 08/09 09:30	72.0	26.3	72.4	12.7	30.38	67.9	827.0	13.01	-39.9	0	-0.1	74.9	74.6	0	1	0	0	6	68.9	66.8	0.0
2017 08/09 09:45	72.5	24.8	105.3	10.8	30.39	68.0	830.0	13.00	-39.9	0	0.1	74.9	75.8	0	1	0	0	6	70.0	67.7	0.0
2017 08/09 10:00	71.8	24.9	98.2	11.4	30.39	68.1	833.0	12.99	-39.9	0	0.3	74.9	76.6	0	1	0	0	6	71.0	68.7	0.0
2017 08/09 10:15	72.8	25.3	86.0	12.1	30.40	68.2	836.0	12.99	-39.9	0	0.2	75.8	76.8	0	1	0	0	6	71.8	69.8	0.0
2017 08/09 10:30	73.3	26.5	62.4	9.1	30.40	68.4	838.0	13.00	-40.0	0	0.4	76.7	77.4	0	1	0	0	6	73.4	71.3	0.0
2017 08/09 10:45	73.9	26.3	68.2	12.5	30.40	68.5	840.0	12.99	-39.9	0	-0.1	77.6	79.0	0	1	0	0	6	75.4	73.5	0.0
2017 08/09 11:00	74.3	26.3	37.5	11.7	30.41	68.7	842.0	13.02	-39.9	0	0.5	77.6	79.5	0	1	0	0	6	75.7	73.7	0.0
2017 08/09 11:15	73.5	26.0	71.5	14.5	30.41	68.9	844.0	12.99	-40.0	0	-0.2	78.5	79.4	0	1	0	0	6	77.0	74.5	0.0
2017 08/09 11:30	75.1	25.4	157.4	13.5	30.41	69.1	847.0	13.00	-40.1	0	-0.2	78.5	80.5	0	1	0	0	6	78.4	75.1	0.0
2017 08/09 11:45	74.5	25.8	92.6	14.6	30.41	69.3	849.0	13.01	-39.9	0	-0.4	80.3	81.0	0	1	0	0	6	79.6	76.2	0.0
2017 08/09 12:00	74.9	25.2	49.3	10.4	30.42	69.5	851.0	13.02	-40.0	0	0.0	78.5	81.6	0	1	0	0	6	81.1	77.0	0.0
2017 08/09 12:15	75.4	24.1	33.1	14.5	30.41	69.7	851.0	12.99	-40.1	0	-0.3	78.5	82.2	0	1	0	0	6	82.0	77.4	0.0
2017 08/09 12:30	75.1	24.3	29.0	13.4	30.41	69.9	853.0	13.01	-40.0	0	0.0	79.4	82.6	0	1	0	0	6	83.0	78.0	0.0
2017 08/09 12:45	74.9	26.8	60.5	9.7	30.42	70.1	855.0	13.01	-40.1	0	0.8	79.4	82.6	0	1	0	0	6	84.0	78.6	0.0
2017 08/09 13:00	76.0	25.2	15.8	10.6	30.42	70.4	858.0	13.02	-39.9	0	-0.1	79.4	83.1	0	1	0	0	6	85.3	79.5	0.0
2017 08/09 13:15	75.6	24.3	66.8	8.7	30.42	70.6	858.0	13.03	-40.0	0	-0.1	79.4	84.0	0	1	0	0	6	85.4	79.6	0.0
2017 08/09 13:30	77.6	22.3	84.2	11.9	30.42	70.8	859.0	13.00	-40.0	0	0.1	83.0	84.5	0	1	0	0	6	86.2	80.0	0.0
2017 08/09 13:45	77.0	23.3	26.0	7.5	30.42	71.0	862.0	13.00	-40.0	0	0.6	83.0	85.5	0	1	0	0	6	86.7	80.7	0.0
2017 08/09 14:00	77.3	20.4	58.5	8.1	30.42	71.2	866.0	13.00	-39.9	0	-0.4	82.1	85.6	0	1	0	0	6	87.3	81.1	0.0
2017 08/09 14:15	77.2	16.4	18.7	15.7	30.42	71.3	866.0	13.01	-40.0	0	-0.1	83.0	84.5	0	1	0	0	6	87.6	81.0	0.0
2017 08/09 14:30	77.6	14.7	41.8	19.3	30.42	71.5	872.0	13.01	-40.0	0	0.3	83.0	86.8	0	1	0	0	6	87.8	81.2	0.0
2017 08/09 14:45	78.3	15.5	30.5	11.3	30.43	71.6	879.0	13.02	-40.1	0	-0.4	84.8	87.2	0	1	0	0	6	88.0	81.1	0.0
2017 08/09 15:00	79.4	17.4	78.2	9.1	30.43	71.9	882.0	13.01	-40.1	0	-0.6	84.8	88.9	0	1	0	0	6	88.3	80.9	0.0
2017 08/09 15:15	77.1	16.4	56.1	11.9	30.43	72.1	886.0	13.00	-40.1	0	-0.2	83.0	88.2	0	1	0	0	6	88.4	80.9	0.0
2017 08/09 15:30	79.4	17.4	79.7	10.6	30.43	72.3	889.0	12.99	-40.0	0	0.1	84.8	89.2	0	1	0	0	6	88.5	80.9	0.0
2017 08/09 15:45	78.1	15.2	60.1	11.5	30.43	72.5	892.0	13.01	-40.0	0	-0.1	83.9	89.3	0	1	0	0	6	88.9	80.8	0.0
2017 08/09 16:00	78.6	16.6	48.2	7.9	30.43	72.7	894.0	13.00	-40.0	0	-0.6	83.9	90.1	0	1	0	0	6	89.1	80.7	0.0
2017 08/09 16:15	77.8	17.4	57.0	11.2	30.43	72.9	897.0	12.99	-40.0	0	-0.3	83.0	88.6	0	1	0	0	6	89.3	80.8	0.0
2017 08/09 16:30	78.1	17.4	89.9	11.8	30.43	73.1	880.0	13.01	-39.9	0	-0.4	83.0	88.4	0	1	0	0	6	89.8	80.5	0.0
2017 08/09 16:45	77.9	19.2	321.4	11.7	30.43	73.5	883.0	13.01	-39.9	0	-0.1	80.3	87.1	0	1	0	0	6	90.1	80.3	0.0
2017 08/09 17:00	75.4	35.9	314.8	14.4	30.43	73.8	884.0	12.99	-40.0	0	-0.4	78.5	83.2	0	1	0	0	6	89.9	80.0	0.0
2017 08/09 17:15	74.4	40.6	318.7	18.1	30.43	74.0	895.0	13.01	-40.0	0	0.2	77.6	83.6	0	1	0	0	6	89.9	79.9	0.0
2017 08/09 17:30	75.3	41.3	317.2	16.9	30.43	74.2	914.0	12.99	-40.0	0	-0.3	78.5	84.3	0	1	0	0	6	89.9	79.9	0.0
2017 08/09 17:45	74.3	40.6	324.6	16.2	30.43	74.6	930.0	13.03	-39.9	0	-0.2	78.5	84.4	0	1	0	0	6	90.2	79.9	0.0
2017 08/09 18:00	74.5	39.3	332.3	15.3	30.44	74.9	932.0	13.01	-39.9	0	-0.7	77.6	83.2	0	1	0	0	6	90.1	79.9	0.0
2017 08/09 18:15	74.0	43.6	313.0	16.6	30.44	75.1	933.0	12.99	-39.9	0	-0.5	76.7	83.2	0	1	0	0	6	90.1	79.8	0.0
2017 08/09 18:30	72.7	45.2	330.1	14.0	30.45	75.5	926.0	13.01	-40.0	0	-0.7	75.8	82.1	0	1	0	0	6	89.9	79.6	0.0
2017 08/09 18:45	73.1	47.5	270.2	12.5	30.46	75.7	914.0	13.00	-40.1	0	-1.6	75.8	79.9	0	1	0	0	6	89.5	79.5	0.0
2017 08/09 19:00	72.3	48.9	292.7	12.0	30.46	76.0	848.0	13.00	-40.0	0	-0.4	74.9	79.2	0	1	0	0	6	89.1	79.3	0.0
2017 08/09 19:15	71.2	50.1	325.2	13.1	30.46	76.3	819.0	13.00	-40.0	0	-0.6	73.1	78.5	0	1	0	0	6	88.8	79.2	0.0
2017 08/09 19:30	71.8	42.7	340.9	19.4	30.47	76.5	775.0	12.99	-40.0	0	-0.4	72.2	77.6	0	1	0	0	6	88.2	79.0	0.0
2017 08/09 19:45	71.2	42.9	348.6	15.9	30.47	76.7	722.0	13.02	-40.0	0	-1.3	71.3	77.2	0	1	0	0	6	87.4	78.6	0.0
2017 08/09 20:00	70.1	42.5	351.3	11.1	30.48	76.8	573.5	13.01	-40.1	0	-0.2	71.3	75.8	0	1	0	0	6	86.9	78.3	0.0
2017 08/09 20:15	69.0	52.4	306.3	9.1	30.47	77.0	362.9	12.99	-40.1	0	0.7	69.5	75.4	0	1	0	0	6	86.3	78.0	0.0
2017 08/09 20:30	68.4	55.5	308.2	12.7	30.47	77.1	142.1	13.02	-39.9	0	0.1	67.7	74.5	0	1	0	0	6	85.5	77.6	0.0
2017 08/09 20:45	67.3	56.0	281.6	10.1	30.48	77.2	21.4	13.02	-40.0	0	0.1	66.8	72.8	0	1	0	0	6	84.8	77.2	0.0
2017 08/09 21:00	67.8	56.4	267.3	9.3	30.49	77.2	1.4	13.03	-39.9	0	0.2	66.8	72.3	0	1	0	0	6	84.1	76.8	0.0
2017 08/09 21:15	67.3	57.6	224.8	13.9	30.50	77.2	0.0	13.02	-39.9	0	0.2	66.8	71.5	0	1	0	0	6	83.7	76.5	0.0
2017 08/09 21:30	66.2	62.1	231.4	14.2	30.50	77.2	0.0	13.03	-39.9	0	0.2	66.8	68.8	0	1	0	0	6	83.0	76.2	0.0
2017 08/09 21:45	66.0	62.3	237.7	10.9	30.50	77.0	0.0	13.01	-39.9	0	0.1	65.9	68.6	0	1	0	0	6	82.5	75.8	0.0
2017 08/09 22:00	66.1	62.0	246.7	8.2	30.51	77.0	0.0	13.01	-39.9	0	0.2	65.0	67.6	0	1	0	0	6	81.9	75.5	0.0
2017 08/09 22:15	66.0	59.2	282.3	4.9	30.50	76.8	0.0	13.03	-40.0	0	0.3	65.0	66.1	0	1	0	0	6	81.5	75.1	0.0
2017 08/09 22:30	65.9	59.7	251.6	4.7	30.50	76.8	-0.3	13.01	-40.0	0	0.1	64.1	65.0	0	1	0	0	6	81.0	74.8	0.0
2017 08/09 22:45	66.1	60.4	273.7	5.4	30.50	76.6	0.0	13.03	-40.1	0	0.5	63.2	64.6	0	1	0	0	6	80.7	74.6	0.0
2017 08/09 23:00	67.2	50.3	340.9	4.1	30.50	76.4	-0.3	13.00	-40.1	0	0.1	65.0	64.2	0	1	0	0	6	80.1	74.3	0.0
2017 08/09 23:15	68.4	41.9	0.1	7.4	30.50	76.2	-0.3	13.00	-39.9	0	0.1	65.0	63.3	0	1	0	0	6	79.8	73.9	0.0
2017 08/09 23:30	69.2	35.5	18.9	9.7	30.50	76.1	0.0	13.01	-40.0	0	0.1	65.0	62.0	0	1	0	0	6	79.2	73.6	0.0
2017 08/09 23:45	70.3	30.4	34.6	11.7	30.49	75.9	0.0	13.03	-39.9	0	0.2	65.0	60.2	0	1	0	0	6	78.5	73.2	0.0
2017 08/10 00:00	70.4	31.0	28.4	13.9	30.49	75.7	0.0	13.00	-40.0	0	-0.4	65.0	58.8	0	1	0	0	6	78.1	72.9	0.0
2017 08/10 00:15	70.9	29.9	38.4	10.4	30.48	75.4	-0.3	12.99	-39.9	0	0.0	65.9	59.3	0	1	0	0	6	77.7	72.7	0.0
2017 08/10 00:30	71.1	29.7	40.6	11.4	30.48	75.1	0.0	13.00	-40.1	0	0.1	65.9	59.1	0	1	0	0	6	77.5	72.3	0.0
2017 08/10 00:45	70.3	29.0	58.8	13.5	30.48	74.9	0.0	13.02	-39.9	0	0.4	64.1	58.2	0	1	0	0	6	76.8	72.0	0.0
2017 08/10 01:00	70.6	27.9	49.5	12.5	30.47	74.6	-0.3	12.99	-40.0	0	0.0	66.8	57.5	0	1	0	0	6	76.3	71.7	0.0
2017 08/10 01:15	70.4	26.4	54.6	12.9	30.47	74.4	-0.3	12.99	-40.0	0	0.7	66.8	57.9	0	1	0	0	6	75.8	71.4	0.0
2017 08/10 01:30	70.9	26.0	55.9	12.5	30.47	74.0	0.0	12.99	-40.0	0	0.0	66.8	56.7	0	1	0	0	6	75.4	71.2	0.0
2017 08/10 01:45	70.5	26.0	59.0	11.2	30.46	73.8	0.0	13.03	-40.0	0	-0.1	66.8	56.0	0	1	0	0	6	75.0	71.0	0.0
2017 08/10 02:00	70.3	25.6	59.4	11.5	30.46	73.6	0.0	13.02	-40.0	0	0.0	65.9	55.2	0	1	0	0	6	74.7	70.6	0.0
2017 08/10 02:15	70.1	26.1	59.0	13.5	30.45	73.2	0.0	13.01	-40.0	0	0.1	65.0	54.8	0	1	0	0	6	74.4	70.4	0.0
2017 08/10 02:30	70.1	25.8	52.5	13.8	30.44	72.9	0.0	13.02	-40.0	0	0.0	64.1	55.1	0	1	0	0	6	74.1	70.1	0.0
2017 08/10 02:45	70.5	26.3	52.0	15.2	30.44	72.7	0.0	12.98	-39.9	0	0.4	65.0	54.0	0	1	0	0	6	73.6	69.9	0.0
2017 08/10 03:00	70.0	28.9	67.8	16.0	30.44	72.5	0.0	13.02	-40.1	0	0.5	65.9	53.9	0	1	0	0	6	73.4	69.6	0.0
2017 08/10 03:15	70.1	28.3	67.3	17.3	30.43	72.1	0.0	13.00	-40.0	0	0.1	66.8	54.0	0	1	0	0	6	73.0	69.4	0.0
2017 08/10 03:30	70.0	26.8	65.9	16.5	30.43	71.9	0.0	13.02	-40.0	0	0.1	65.9	53.7	0	1	0	0	6	72.8	69.2	0.0
2017 08/10 03:45	70.5	26.2	64.8	15.3	30.42	71.6	0.0	13.01	-39.9	0	0.2	65.9	53.9	0	1	0	0	6	72.5	69.0	0.0
2017 08/10 04:00	70.6	24.8	67.1	15.2	30.42	71.2	0.0	12.99	-40.0	0	0.3	65.0	53.3	0	1	0	0	6	72.0	68.6	0.0
2017 08/10 04:15	70.5	25.3	60.4	14.4	30.41	71.0	0.0	13.00	-40.0	0	0.1	65.0	53.3	0	1	0	0	6	71.8	68.5	0.0
2017 08/10 04:30	69.9	26.8	62.0	15.2	30.41	70.8	0.0	13.00	-40.0	0	0.2	65.9	53.7	0	1	0	0	6	71.5	68.3	0.0
2017 08/10 04:45	69.8	26.9	50.9	15.5	30.40	70.6	0.0	13.01	-40.0	0	0.2	66.8	52.6	0	1	0	0	6	71.2	68.1	0.0
2017 08/10 05:00	69.6	28.1	39.0	17.8	30.40	70.3	0.0	13.00	-40.0	0	0.5	66.8	52.3	0	1	0	0	6	71.0	67.8	0.0
2017 08/10 05:15	69.4	28.7	62.4	16.2	30.40	70.0	0.0	13.02	-40.0	0	0.3	66.8	52.4	0	1	0	0	6	70.6	67.6	0.0
2017 08/10 05:30	69.6	29.0	66.4	17.1	30.40	69.8	0.7	13.00	-39.9	0	0.5	66.8	52.6	0	1	0	0	6	70.2	67.4	0.0
2017 08/10 05:45	69.0	29.0	78.4	17.3	30.40	69.6	17.0	13.02	-40.0	0	0.5	66.8	52.1	0	1	0	0	6	70.1	67.0	0.0
2017 08/10 06:00	69.5	27.8	58.3	17.9	30.40	69.3	134.3	13.03	-40.0	0	0.4	66.8	52.2	0	1	0	0	6	69.8	66.8	0.0
2017 08/10 06:15	69.3	27.5	64.2	17.8	30.39	69.1	326.6	13.03	-39.9	0	0.3	66.8	52.3	0	1	0	0	6	69.5	66.6	0.0
2017 08/10 06:30	69.5	27.5	69.3	17.1	30.39	68.9	485.0	13.02	-39.9	0	-0.2	66.8	52.4	0	1	0	0	6	69.3	66.5	0.0
2017 08/10 06:45	69.3	27.3	69.3	17.3	30.39	68.7	591.5	13.00	-40.0	0	0.3	66.8	52.9	0	1	0	0	6	69.1	66.3	0.0
2017 08/10 07:00	69.4	27.1	69.9	17.4	30.39	68.5	661.0	12.99	-40.0	0	0.4	66.8	54.0	0	1	0	0	6	68.9	66.0	0.0
2017 08/10 07:15	69.3	27.0	75.5	16.4	30.39	68.3	712.0	13.02	-40.0	0	0.2	67.7	55.1	0	1	0	0	6	68.9	66.0	0.0
2017 08/10 07:30	69.0	27.8	79.6	17.2	30.39	68.1	745.0	12.99	-40.0	0	0.2	67.7	57.7	0	1	0	0	6	68.7	65.9	0.0
2017 08/10 07:45	68.9	33.6	75.7	17.6	30.39	67.9	766.0	12.99	-40.0	0	0.1	69.5	62.2	0	1	0	0	6	68.5	65.8	0.0
2017 08/10 08:00	68.9	33.2	77.0	17.6	30.39	67.8	783.0	12.99	-39.9	0	-0.3	70.4	64.9	0	1	0	0	6	68.6	65.9	0.0
2017 08/10 08:15	69.5	30.6	75.1	19.4	30.39	67.6	796.0	12.99	-40.1	0	0.2	70.4	66.4	0	1	0	0	6	68.6	65.9	0.0
2017 08/10 08:30	69.6	30.8	78.8	18.7	30.38	67.6	806.0	13.01	-39.9	0	0.0	71.3	70.3	0	1	0	0	6	68.7	66.0	0.0
2017 08/10 08:45	70.1	33.7	82.2	18.8	30.38	67.5	813.0	13.01	-39.9	0	0.2	72.2	71.5	0	1	0	0	6	68.9	66.4	0.0
2017 08/10 09:00	70.4	33.0	86.2	20.5	30.38	67.5	821.0	12.97	-40.0	0	-0.6	72.2	73.1	0	1	0	0	6	69.2	66.8	0.0
2017 08/10 09:15	70.3	35.5	88.0	19.9	30.38	67.4	827.0	12.99	-39.9	0	-0.3	74.0	74.1	0	1	0	0	6	69.4	67.4	0.0
2017 08/10 09:30	70.6	32.8	85.1	20.4	30.39	67.4	831.0	13.00	-39.9	0	0.1	74.0	75.1	0	1	0	0	6	70.3	68.3	0.0
2017 08/10 09:45	71.1	32.6	97.2	21.1	30.38	67.5	836.0	12.99	-40.0	0	0.1	74.9	76.0	0	1	0	0	6	71.3	69.1	0.0
2017 08/10 10:00	71.6	32.8	78.5	21.1	30.39	67.6	838.0	12.99	-40.0	0	0.3	74.9	76.7	0	1	0	0	6	72.2	70.1	0.0
2017 08/10 10:15	71.8	35.3	90.7	19.9	30.39	67.6	840.0	12.99	-40.0	0	0.4	75.8	77.5	0	1	0	0	6	73.1	71.0	0.0
2017 08/10 10:30	72.2	31.5	100.4	20.7	30.39	67.8	843.0	12.99	-40.0	0	-0.4	76.7	77.7	0	1	0	0	6	74.1	72.2	0.0
2017 08/10 10:45	72.8	31.5	96.0	20.4	30.40	67.9	846.0	13.01	-40.0	0	-0.2	76.7	79.2	0	1	0	0	6	75.4	73.2	0.0
2017 08/10 11:00	73.7	29.4	94.8	21.1	30.40	68.0	848.0	13.00	-39.9	0	-0.1	77.6	80.1	0	1	0	0	6	76.5	74.1	0.0
2017 08/10 11:15	73.2	31.6	84.7	19.1	30.40	68.2	850.0	13.01	-40.0	0	0.7	78.5	80.8	0	1	0	0	6	77.4	74.7	0.0
2017 08/10 11:30	73.7	29.7	84.2	19.3	30.40	68.3	853.0	12.99	-40.0	0	-0.6	80.3	81.7	0	1	0	0	6	78.8	76.0	0.0
2017 08/10 11:45	73.8	30.9	130.3	20.1	30.40	68.5	854.0	12.99	-40.0	0	0.1	81.2	82.0	0	1	0	0	6	79.9	76.6	0.0
2017 08/10 12:00	75.0	29.7	88.0	17.4	30.40	68.7	856.0	13.01	-40.0	0	-0.4	79.4	83.0	0	1	0	0	6	81.2	77.6	0.0
2017 08/10 12:15	75.4	27.2	97.8	16.4	30.40	68.9	857.0	12.99	-40.1	0	0.0	81.2	83.2	0	1	0	0	6	82.1	78.3	0.0
2017 08/10 12:30	75.9	27.4	85.7	14.4	30.41	69.1	859.0	13.01	-40.0	0	0.1	82.1	84.6	0	1	0	0	6	83.1	79.0	0.0
2017 08/10 12:45	76.1	27.6	69.1	16.5	30.41	69.3	860.0	13.01	-39.9	0	-0.7	83.0	85.5	0	1	0	0	6	84.1	80.0	0.0
2017 08/10 13:00	76.5	26.9	84.2	14.0	30.42	69.5	864.0	13.01	-40.0	0	-0.2	82.1	85.3	0	1	0	0	6	85.0	80.7	0.0
2017 08/10 13:15	76.2	27.6	55.5	9.3	30.41	69.7	866.0	13.01	-40.0	0	-0.2	83.9	85.8	0	1	0	0	6	85.8	81.0	0.0
2017 08/10 13:30	77.6	25.0	87.0	18.0	30.41	69.9	869.0	13.01	-40.0	0	0.0	84.8	87.7	0	1	0	0	6	86.6	81.3	0.0
2017 08/10 13:45	77.2	25.8	84.4	10.2	30.41	70.0	870.0	13.01	-40.0	0	-0.8	87.5	86.7	0	1	0	0	6	87.3	81.7	0.0
2017 08/10 14:00	78.3	22.2	90.7	17.6	30.41	70.1	873.0	13.00	-40.0	0	-0.8	83.9	89.2	0	1	0	0	6	87.9	81.9	0.0
2017 08/10 14:15	77.8	22.4	97.7	16.9	30.41	70.4	876.0	13.00	-40.0	0	-0.3	86.6	89.2	0	1	0	0	6	88.2	82.1	0.0
2017 08/10 14:30	77.6	21.8	85.7	8.1	30.42	70.6	878.0	13.02	-40.0	0	-0.5	85.7	87.9	0	1	0	0	6	88.5	82.4	0.0
2017 08/10 14:45	78.7	29.9	283.9	6.0	30.42	70.8	855.0	13.02	-40.0	0	-0.3	82.1	85.8	0	1	0	0	6	88.5	82.2	0.0
2017 08/10 15:00	75.3	42.9	243.5	13.1	30.42	71.0	850.0	13.00	-40.0	0	0.6	79.4	84.4	0	1	0	0	6	88.3	82.0	0.0
2017 08/10 15:15	73.2	46.2	53.8	13.5	30.41	71.2	857.0	12.99	-40.1	0	0.1	76.7	82.1	0	1	0	0	6	88.2	81.9	0.0
2017 08/10 15:30	72.5	41.2	227.9	11.7	30.41	71.4	857.0	13.02	-40.0	0	-0.6	75.8	81.0	0	1	0	0	6	88.0	81.6	0.0
2017 08/10 15:45	72.0	41.2	129.1	12.6	30.41	71.6	872.0	13.01	-40.0	0	0.5	74.9	82.1	0	1	0	0	6	87.6	81.1	0.0
2017 08/10 16:00	71.7	44.8	223.4	20.5	30.41	71.9	874.0	13.00	-40.0	0	0.0	75.8	82.9	0	1	0	0	6	87.6	80.9	0.0
2017 08/10 16:15	72.0	50.5	238.6	10.4	30.42	72.1	876.0	12.99	-40.1	0	0.4	75.8	83.2	0	1	0	0	6	87.9	80.8	0.0
2017 08/10 16:30	70.4	51.4	245.2	13.1	30.42	72.3	841.0	13.01	-40.0	0	-0.2	74.9	80.3	0	1	0	0	6	88.0	80.8	0.0
2017 08/10 16:45	71.1	53.0	293.2	9.7	30.43	72.5	821.0	13.00	-40.0	0	-0.1	74.0	79.0	0	1	0	0	6	87.9	80.5	0.0
2017 08/10 17:00	70.9	53.3	256.6	9.7	30.42	72.7	834.0	13.00	-40.0	0	0.1	73.1	78.9	0	1	0	0	6	87.6	80.2	0.0
2017 08/10 17:15	71.6	52.5	282.2	8.3	30.42	72.9	898.0	13.01	-40.0	0	-0.4	74.9	80.4	0	1	0	0	6	87.6	80.1	0.0
2017 08/10 17:30	73.3	46.0	257.2	6.8	30.43	73.1	894.0	13.01	-39.9	0	-0.0	75.8	80.1	0	1	0	0	6	88.0	80.0	0.0
2017 08/10 17:45	71.7	44.2	260.4	8.7	30.43	73.1	859.0	12.99	-39.9	0	-0.6	74.9	79.3	0	1	0	0	6	88.0	79.9	0.0
2017 08/10 18:00	71.5	45.2	262.3	7.4	30.44	73.4	853.0	13.01	-40.0	0	-0.3	73.1	78.4	0	1	0	0	6	87.9	79.5	0.0
2017 08/10 18:15	70.3	46.4	287.8	5.8	30.44	73.6	792.0	13.00	-40.1	0	-0.8	73.1	78.0	0	1	0	0	6	87.6	79.3	0.0
2017 08/10 18:30	71.2	45.8	339.1	8.9	30.43	73.8	819.0	13.02	-39.9	0	0.1	73.1	77.7	0	1	0	0	6	87.2	79.1	0.0
2017 08/10 18:45	71.1	43.4	271.6	7.4	30.43	73.8	837.0	13.01	-40.1	0	0.0	73.1	77.4	0	1	0	0	6	86.9	78.8	0.0
2017 08/10 19:00	70.5	43.2	283.2	8.5	30.43	74.0	780.0	13.01	-39.9	0	-0.7	72.2	76.9	0	1	0	0	6	86.6	78.5	0.0
2017 08/10 19:15	68.8	50.2	269.7	10.6	30.43	74.0	664.1	13.01	-40.0	0	0.0	70.4	75.8	0	1	0	0	6	86.4	78.3	0.0
2017 08/10 19:30	69.2	52.0	273.1	10.2	30.43	74.2	568.4	13.01	-40.0	0	-0.4	69.5	74.5	0	1	0	0	6	85.7	78.1	0.0
2017 08/10 19:45	67.3	59.5	245.4	16.0	30.43	74.2	480.9	13.01	-39.9	0	-0.7	69.5	74.5	0	1	0	0	6	84.9	77.7	0.0
2017 08/10 20:00	65.5	65.9	224.8	21.9	30.43	74.2	293.0	12.99	-39.9	0	-0.2	66.8	72.4	0	1	0	0	6	84.4	77.4	0.0
2017 08/10 20:15	64.9	68.4	228.9	22.9	30.43	74.2	220.1	13.02	-40.1	0	-0.1	66.8	71.7	0	1	0	0	6	84.0	77.3	0.0
2017 08/10 20:30	65.4	66.1	229.9	6.1	30.46	74.2	84.4	13.01	-39.9	0	0.2	66.8	71.9	0	1	0	0	6	83.5	77.0	0.0
2017 08/10 20:45	65.3	63.6	222.4	6.5	30.46	74.2	5.1	13.02	-40.0	0	-0.4	66.8	71.7	0	1	0	0	6	83.0	76.7	0.0
2017 08/10 21:00	66.3	60.2	216.0	15.7	30.45	74.2	0.3	12.99	-40.0	0	0.1	66.8	71.8	0	1	0	0	6	82.5	76.5	0.0
2017 08/10 21:15	66.8	60.7	206.6	3.2	30.46	74.2	0.0	13.01	-40.1	0	-0.2	66.8	71.7	0	1	0	0	6	82.2	76.3	0.0
2017 08/10 21:30	66.5	60.7	266.9	4.4	30.46	74.0	0.0	13.01	-40.0	0	-0.6	67.7	71.0	0	1	0	0	6	81.8	75.9	0.0
2017 08/10 21:45	67.9	52.4	216.6	4.5	30.46	74.0	0.0	13.03	-40.0	0	0.4	67.7	71.1	0	1	0	0	6	81.3	75.7	0.0
2017 08/10 22:00	68.7	52.2	181.0	0.0	30.47	73.8	-0.3	13.01	-40.0	0	0.2	66.8	70.6	0	1	0	0	6	81.0	75.5	0.0
2017 08/10 22:15	68.4	45.1	17.9	4.4	30.47	73.8	0.0	13.00	-39.9	0	-0.2	65.9	70.1	0	1	0	0	6	80.7	75.4	0.0
2017 08/10 22:30	68.5	50.7	18.6	8.5	30.46	73.6	0.0	13.00	-40.0	0	-0.6	66.8	69.6	0	1	0	0	6	80.4	75.1	0.0
2017 08/10 22:45	66.2	59.9	12.8	15.4	30.46	73.6	0.0	13.01	-39.9	0	0.3	64.1	68.8	0	1	0	0	6	80.1	74.9	0.0
2017 08/10 23:00	67.4	46.9	39.3	14.0	30.46	73.4	0.0	13.00	-39.9	0	0.7	65.0	69.2	0	1	0	0	6	79.8	74.7	0.0
2017 08/10 23:15	66.8	40.8	63.1	25.4	30.45	73.1	0.0	12.99	-40.0	0	0.4	65.9	70.0	0	1	0	0	6	79.5	74.6	0.0
2017 08/10 23:30	65.0	47.2	81.7	21.6	30.43	73.0	0.0	12.99	-39.9	0	0.5	65.0	68.2	0	4	0	0	6	79.3	74.4	0.0
2017 08/10 23:45	66.3	40.8	46.3	26.0	30.41	72.8	0.0	12.99	-39.9	0	0.6	65.0	68.4	0	4	0	0	6	78.8	74.0	0.0
2017 08/11 00:00	66.2	38.4	24.9	31.4	30.41	72.6	0.0	13.02	-40.0	0	0.7	66.8	69.6	0	4	0	0	6	78.5	73.8	0.0
2017 08/11 00:15	68.4	35.8	36.3	24.1	30.41	72.3	0.0	12.99	-40.0	0	0.5	66.8	69.6	0	4	0	0	6	78.1	73.6	0.0
2017 08/11 00:30	69.8	32.0	59.3	10.1	30.42	72.1	0.0	13.01	-39.9	0	0.5	67.7	69.2	0	4	0	0	6	77.7	73.4	0.0
2017 08/11 00:45	69.4	32.6	104.9	8.6	30.42	71.9	0.0	12.99	-39.9	0	0.7	67.7	69.2	0	4	0	0	6	77.4	73.1	0.0
2017 08/11 01:00	69.3	34.0	118.8	1.5	30.42	71.6	-0.3	13.00	-39.9	0	0.5	66.8	68.5	0	4	0	0	6	77.2	72.9	0.0
2017 08/11 01:15	67.9	38.8	220.1	1.5	30.41	71.5	0.0	12.99	-40.0	0	0.4	65.9	68.6	0	4	0	0	6	77.1	72.8	0.0
2017 08/11 01:30	66.2	45.6	122.4	2.8	30.40	71.3	-0.3	13.01	-40.1	0	0.6	65.0	67.9	0	4	0	0	6	76.7	72.6	0.0
2017 08/11 01:45	66.7	44.3	213.8	9.3	30.40	71.1	-0.3	12.99	-39.9	0	0.4	64.1	66.8	0	4	0	0	6	76.5	72.3	0.0
2017 08/11 02:00	65.3	53.9	209.6	14.7	30.40	71.0	0.0	13.01	-40.0	0	0.6	65.0	65.1	0	4	0	0	6	76.0	72.2	0.0
2017 08/11 02:15	64.2	59.0	216.8	14.8	30.39	70.8	0.0	13.02	-40.0	0	0.5	64.1	64.7	0	4	0	0	6	75.8	72.0	0.0
2017 08/11 02:30	61.3	71.4	210.6	14.4	30.39	70.6	0.0	13.00	-40.0	0	0.4	63.2	64.8	0	4	0	0	6	75.6	71.8	0.0
2017 08/11 02:45	62.1	68.2	193.1	13.5	30.38	70.4	0.0	13.00	-40.0	0	0.6	63.2	65.5	0	4	0	0	6	75.1	71.7	0.0
2017 08/11 03:00	62.8	58.2	182.7	8.1	30.38	70.1	-0.3	13.01	-40.0	0	0.4	64.1	64.1	0	4	0	0	6	74.8	71.4	0.0
2017 08/11 03:15	64.2	53.6	214.0	9.8	30.38	70.0	0.0	12.99	-40.0	0	0.5	64.1	64.2	0	4	0	0	6	74.6	71.2	0.0
2017 08/11 03:30	65.5	48.5	221.5	13.2	30.37	69.8	0.0	13.01	-40.0	0	0.5	61.4	63.8	0	4	0	0	6	74.4	71.1	0.0
2017 08/11 03:45	63.8	58.7	233.9	10.8	30.37	69.6	0.0	12.99	-40.1	0	0.5	60.5	63.2	0	4	0	0	6	74.1	70.9	0.0
2017 08/11 04:00	63.2	59.1	251.5	9.3	30.37	69.5	0.0	12.99	-40.0	0	0.5	60.5	62.0	0	4	0	0	6	73.9	70.6	0.0
2017 08/11 04:15	63.0	61.7	257.3	10.0	30.37	69.3	0.0	12.99	-39.9	0	0.3	60.5	60.7	0	4	0	0	6	73.7	70.5	0.0
2017 08/11 04:30	63.8	53.5	244.0	8.6	30.36	69.1	0.0	13.00	-40.0	0	0.5	60.5	60.4	0	4	0	0	6	73.4	70.3	0.0
2017 08/11 04:45	63.8	54.3	243.2	8.7	30.36	68.9	0.0	13.00	-39.9	0	0.4	60.5	59.2	0	4	0	0	6	73.0	70.1	0.0
2017 08/11 05:00	63.3	55.4	251.9	8.0	30.35	68.7	-0.3	13.01	-40.0	0	0.5	61.4	59.2	0	4	0	0	6	72.8	70.0	0.0
2017 08/11 05:15	65.9	45.9	256.4	4.1	30.35	68.5	0.0	13.01	-40.0	0	0.5	62.3	58.9	0	4	0	0	6	72.6	69.8	0.0
2017 08/11 05:30	65.9	48.4	256.3	4.8	30.35	68.3	0.7	13.01	-40.0	0	0.0	62.3	57.8	0	4	0	0	6	72.2	69.5	0.0
2017 08/11 05:45	66.6	46.1	273.1	2.0	30.34	68.1	12.2	13.01	-40.0	0	0.3	63.2	56.9	0	4	0	0	6	72.0	69.3	0.0
2017 08/11 06:00	66.2	45.0	279.6	4.6	30.34	67.9	94.6	12.99	-40.0	0	0.0	64.1	56.4	0	4	0	0	6	71.8	69.1	0.0
2017 08/11 06:15	66.2	43.1	286.7	4.4	30.34	67.8	238.8	13.02	-40.0	0	0.3	64.1	56.8	0	4	0	0	6	71.5	69.0	0.0
2017 08/11 06:30	65.6	48.4	255.4	6.6	30.34	67.6	435.8	12.99	-39.9	0	0.2	63.2	57.4	0	4	0	0	6	71.3	68.7	0.0
2017 08/11 06:45	64.6	48.0	272.9	4.9	30.34	67.4	575.2	12.99	-40.0	0	0.3	64.1	58.5	0	4	0	0	6	71.2	68.6	0.0
2017 08/11 07:00	64.4	50.9	265.9	6.0	30.35	67.2	636.3	13.01	-39.9	0	-0.3	64.1	59.6	0	4	0	0	6	71.0	68.5	0.0
2017 08/11 07:15	64.5	49.8	295.8	4.2	30.34	67.0	672.9	13.03	-40.0	0	0.2	65.0	61.2	0	4	0	0	6	71.0	68.5	0.0
2017 08/11 07:30	65.0	45.1	307.7	4.1	30.34	66.9	699.3	13.00	-40.0	0	0.0	64.1	63.7	0	4	0	0	6	70.9	68.5	0.0
2017 08/11 07:45	65.5	47.8	275.4	3.4	30.34	66.7	725.0	13.01	-40.0	0	0.0	64.1	65.0	0	4	0	0	6	71.0	68.4	0.0
2017 08/11 08:00	65.5	40.5	281.5	1.2	30.34	66.6	743.0	12.99	-40.0	0	-0.1	65.0	65.8	0	4	0	0	6	71.0	68.4	0.0
2017 08/11 08:15	67.6	38.0	251.5	0.8	30.34	66.5	762.0	12.99	-40.1	0	-0.1	65.9	66.7	0	4	0	0	6	71.2	68.4	0.0
2017 08/11 08:30	68.2	39.1	249.4	0.0	30.34	66.4	784.0	12.99	-39.9	0	0.2	65.9	67.7	0	4	0	0	6	71.2	68.5	0.0
2017 08/11 08:45	68.5	38.0	237.1	0.0	30.34	66.3	802.0	13.00	-40.0	0	0.1	67.7	68.6	0	4	0	0	6	71.3	68.6	0.0
2017 08/11 09:00	71.1	35.8	123.4	1.9	30.33	66.2	845.0	12.99	-40.0	0	-0.5	71.3	71.2	0	4	0	0	6	71.4	69.0	0.0
2017 08/11 09:15	71.6	36.7	48.9	0.7	30.33	66.1	842.0	12.99	-40.0	0	-0.1	72.2	72.3	0	4	0	0	6	71.9	69.3	0.0
2017 08/11 09:30	71.4	37.0	49.9	2.0	30.34	66.1	843.0	12.99	-40.0	0	0.3	73.1	73.0	0	4	0	0	6	72.8	70.0	0.0
2017 08/11 09:45	72.3	34.9	187.4	0.1	30.34	66.1	843.0	13.01	-40.1	0	-0.8	73.1	74.4	0	4	0	0	6	73.7	70.6	0.0
2017 08/11 10:00	72.3	40.8	342.3	1.5	30.33	66.1	840.0	13.01	-40.0	0	0.2	73.1	75.0	0	4	0	0	6	74.6	71.4	0.0
2017 08/11 10:15	72.6	41.2	286.8	4.9	30.33	66.1	844.0	13.01	-40.1	0	0.3	71.3	75.6	0	4	0	0	6	75.3	72.2	0.0
2017 08/11 10:30	70.9	47.5	276.3	6.4	30.33	66.2	842.0	13.02	-40.0	0	0.4	73.1	75.1	0	4	0	0	6	76.2	73.0	0.0
2017 08/11 10:45	70.0	47.9	272.7	5.2	30.34	66.3	848.0	13.01	-39.9	0	-0.3	73.1	76.4	0	4	0	0	6	77.4	74.0	0.0
2017 08/11 11:00	70.0	46.3	211.9	6.6	30.34	66.4	853.0	13.00	-39.9	0	-0.2	74.9	76.4	0	4	0	0	6	78.6	74.9	0.0
2017 08/11 11:15	71.7	43.5	273.2	8.1	30.34	66.6	832.0	13.01	-39.9	0	0.1	73.1	77.5	0	4	0	0	6	79.3	75.4	0.0
2017 08/11 11:30	71.6	44.0	290.7	7.1	30.34	66.8	856.0	13.01	-40.1	0	-0.8	75.8	78.5	0	4	0	0	6	80.5	75.7	0.0
2017 08/11 11:45	72.1	40.3	314.3	6.8	30.35	67.0	861.0	13.01	-40.0	0	-0.7	76.7	78.7	0	4	0	0	6	82.0	76.5	0.0
2017 08/11 12:00	73.2	40.8	271.1	6.9	30.35	67.2	867.0	13.00	-39.9	0	0.5	77.6	79.3	0	4	0	0	6	83.4	77.5	0.0
2017 08/11 12:15	74.5	39.4	302.0	6.7	30.35	67.5	864.0	13.01	-40.0	0	-0.7	77.6	79.4	0	4	0	0	6	84.3	77.9	0.0
2017 08/11 12:30	73.7	41.9	260.6	4.9	30.35	67.7	856.0	13.00	-40.1	0	-0.9	77.6	79.8	0	4	0	0	6	85.3	78.4	0.0
2017 08/11 12:45	72.3	38.7	289.1	8.9	30.35	68.0	817.0	13.01	-39.9	0	-0.3	76.7	79.1	0	4	0	0	6	85.8	79.1	0.0
2017 08/11 13:00	71.8	45.4	270.5	5.4	30.35	68.2	838.0	13.02	-40.1	0	-0.1	74.0	78.6	0	4	0	0	6	86.2	79.1	0.0
2017 08/11 13:15	71.1	50.3	329.8	5.3	30.36	68.6	865.0	13.00	-40.0	0	-0.2	74.9	79.1	0	4	0	0	6	86.3	79.0	0.0
2017 08/11 13:30	72.6	50.0	303.5	3.3	30.36	68.9	861.0	12.99	-39.9	0	-0.5	75.8	79.1	0	4	0	0	6	86.6	78.9	0.0
2017 08/11 13:45	71.6	54.5	243.6	4.9	30.37	69.2	848.0	13.02	-40.0	0	0.4	74.9	79.1	0	4	0	0	6	86.7	78.9	0.0
2017 08/11 14:00	70.5	58.1	213.3	13.8	30.37	69.5	851.0	13.03	-40.0	0	0.4	74.0	78.5	0	4	0	0	6	86.6	78.8	0.0
2017 08/11 14:15	70.3	57.6	259.0	13.2	30.37	69.7	876.0	13.00	-39.9	0	0.1	77.6	79.3	0	4	0	0	6	86.9	78.6	0.0
2017 08/11 14:30	71.2	54.9	307.7	6.5	30.37	70.0	870.0	13.00	-40.0	0	-0.9	75.8	79.3	0	4	0	0	6	87.2	78.6	0.0
2017 08/11 14:45	71.5	56.8	295.8	7.5	30.38	70.3	852.0	13.01	-40.0	0	-0.6	74.0	78.3	0	4	0	0	6	87.2	78.6	0.0
2017 08/11 15:00	71.5	55.2	291.8	9.3	30.37	70.6	878.0	13.01	-40.1	0	0.2	74.0	78.9	0	4	0	0	6	87.1	78.8	0.0
2017 08/11 15:15	71.8	53.9	240.2	4.1	30.37	70.8	860.0	13.01	-40.0	0	-0.4	74.0	78.9	0	4	0	0	6	87.1	78.8	0.0
2017 08/11 15:30	71.5	52.5	267.7	4.2	30.37	71.0	848.0	13.01	-40.0	0	0.0	74.0	78.5	0	4	0	0	6	87.0	78.5	0.0
2017 08/11 15:45	71.1	49.0	269.6	6.7	30.37	71.2	852.0	13.01	-40.0	0	-0.5	74.9	79.0	0	4	0	0	6	86.9	78.4	0.0
2017 08/11 16:00	72.8	41.0	306.6	3.5	30.37	71.4	894.0	13.01	-39.9	0	0.0	76.7	83.7	0	4	0	0	6	87.2	78.4	0.0
2017 08/11 16:15	75.4	43.8	309.1	8.8	30.37	71.6	889.0	12.99	-40.0	0	-0.5	79.4	83.2	0	4	0	0	6	87.6	78.5	0.0
2017 08/11 16:30	73.2	51.4	288.9	9.2	30.37	71.9	868.0	13.00	-40.0	0	-0.3	76.7	80.8	0	4	0	0	6	88.3	78.6	0.0
2017 08/11 16:45	71.1	57.9	323.2	10.5	30.37	72.1	883.0	13.00	-39.9	0	-1.0	74.9	79.5	0	4	0	0	6	88.4	78.8	0.0
2017 08/11 17:00	71.5	58.0	310.9	9.1	30.37	72.3	904.0	13.02	-40.0	0	0.5	75.8	80.7	0	4	0	0	6	88.0	78.6	0.0
2017 08/11 17:15	71.5	58.1	294.1	11.9	30.37	72.6	904.0	13.00	-39.9	0	-0.5	75.8	80.9	0	4	0	0	6	88.2	78.6	0.0
2017 08/11 17:30	71.8	59.0	225.8	12.7	30.37	72.9	917.0	13.02	-40.0	0	-0.7	75.8	80.5	0	4	0	0	6	88.5	78.8	0.0
2017 08/11 17:45	72.2	58.4	250.4	10.4	30.37	73.1	945.0	13.01	-39.9	0	0.2	74.9	82.1	0	4	0	0	6	89.1	78.9	0.0
2017 08/11 18:00	72.2	56.7	269.6	11.8	30.37	73.4	952.0	12.99	-40.0	0	-0.8	73.1	80.3	0	4	0	0	6	89.5	79.0	0.0
2017 08/11 18:15	71.0	57.2	280.3	9.3	30.38	73.6	952.0	13.01	-39.9	0	-0.7	73.1	80.0	0	4	0	0	6	89.5	79.0	0.0
2017 08/11 18:30	69.6	59.5	286.9	8.3	30.39	73.8	901.0	13.01	-39.9	0	-0.6	72.2	78.2	0	4	0	0	6	88.8	79.0	0.0
2017 08/11 18:45	68.7	63.4	262.0	11.2	30.39	74.2	936.0	13.02	-40.0	0	-0.5	70.4	75.9	0	4	0	0	6	88.6	78.9	0.0
2017 08/11 19:00	67.9	65.1	286.7	8.0	30.39	74.4	832.0	13.01	-39.9	0	-0.2	69.5	75.4	0	4	0	0	6	87.2	78.8	0.0
2017 08/11 19:15	67.6	67.0	297.6	7.2	30.39	74.6	767.0	13.01	-40.1	0	0.0	68.6	74.6	0	4	0	0	6	86.4	78.5	0.0
2017 08/11 19:30	66.2	68.4	276.7	7.9	30.39	74.9	714.0	13.01	-39.9	0	-0.2	67.7	73.9	0	4	0	0	6	85.6	78.3	0.0
2017 08/11 19:45	64.6	70.5	264.7	10.9	30.40	75.1	556.2	13.01	-40.1	0	-0.2	66.8	72.9	0	4	0	0	6	84.6	78.0	0.0
2017 08/11 20:00	63.7	74.5	234.7	11.8	30.40	75.3	401.2	13.00	-40.0	0	0.3	65.0	72.0	0	4	0	0	6	83.9	77.7	0.0
2017 08/11 20:15	62.6	79.0	243.6	14.0	30.40	75.3	311.7	13.00	-40.0	0	-0.3	64.1	71.0	0	4	0	0	6	83.5	77.5	0.0
2017 08/11 20:30	62.2	80.7	256.0	18.1	30.39	75.4	91.2	12.97	-40.0	0	-0.2	63.2	69.6	0	4	0	0	6	82.6	77.2	0.0
2017 08/11 20:45	62.1	80.2	259.4	6.6	30.41	75.5	7.5	13.00	-40.0	0	0.2	62.3	69.3	0	4	0	0	6	81.9	76.8	0.0
2017 08/11 21:00	60.9	82.5	270.2	10.1	30.40	75.5	0.3	13.01	-40.0	0	-0.0	61.4	68.7	0	4	0	0	6	81.3	76.5	0.0
2017 08/11 21:15	60.2	84.2	249.6	13.5	30.41	75.5	0.0	13.00	-40.0	0	-0.0	60.5	68.1	0	4	0	0	6	80.3	76.2	0.0
2017 08/11 21:30	59.9	85.3	240.3	11.2	30.41	75.4	0.0	13.00	-40.0	0	-0.0	60.5	67.2	0	4	0	0	6	79.9	75.8	0.0
2017 08/11 21:45	60.2	86.2	263.5	15.9	30.40	75.3	0.0	13.01	-40.0	0	-0.0	60.5	66.7	0	4	0	0	6	79.3	75.6	0.0
2017 08/11 22:00	58.9	88.4	269.1	14.2	30.41	75.1	0.0	13.01	-40.0	0	-0.0	60.5	66.5	0	4	0	0	6	78.6	75.3	0.0
2017 08/11 22:15	59.1	88.7	245.5	15.3	30.40	75.1	0.0	13.01	-39.9	0	-0.1	59.6	66.4	0	4	0	0	6	78.3	75.0	0.0
2017 08/11 22:30	58.0	90.4	248.0	13.7	30.39	74.9	0.0	13.02	-39.9	0	0.1	59.6	66.0	0	4	0	0	6	77.9	74.8	0.0
2017 08/11 22:45	58.4	90.8	219.9	14.1	30.39	74.6	0.0	12.99	-40.0	0	-0.2	59.6	65.4	0	4	0	0	6	77.4	74.5	0.0
2017 08/11 23:00	59.0	92.5	235.6	16.2	30.39	74.4	0.0	13.00	-39.9	0	0.0	58.7	65.4	0	4	0	0	6	76.7	74.3	0.0
2017 08/11 23:15	58.0	93.5	226.0	15.7	30.39	74.2	0.0	13.01	-39.9	0	0.2	58.7	65.0	0	4	0	0	6	76.6	74.0	0.0
2017 08/11 23:30	58.6	91.5	254.4	12.9	30.38	74.0	0.0	12.99	-40.0	0	-0.1	58.7	64.6	0	4	0	0	6	76.2	73.8	0.0
2017 08/11 23:45	57.9	91.6	233.5	14.7	30.38	73.8	0.0	13.00	-39.9	0	0.1	58.7	64.6	0	4	0	0	6	75.5	73.6	0.0
2017 08/12 00:00	58.2	94.1	221.8	11.7	30.38	73.6	0.0	13.00	-40.0	0	0.9	57.8	62.2	0	5	0	0	6	75.4	73.4	0.0
2017 08/12 00:15	59.1	89.1	219.5	15.2	30.37	73.4	0.0	13.02	-40.0	0	0.9	57.8	62.5	0	5	0	0	6	75.1	73.2	0.0
2017 08/12 00:30	59.3	85.9	220.6	15.7	30.37	73.0	0.0	13.02	-40.0	0	0.9	57.8	62.9	0	5	0	0	6	74.5	72.9	0.0
2017 08/12 00:45	59.0	89.7	210.3	19.2	30.37	72.7	-0.3	13.01	-40.0	0	0.8	57.8	62.5	0	5	0	0	6	74.1	72.7	0.0
2017 08/12 01:00	61.3	65.6	253.2	7.5	30.36	72.5	0.0	13.02	-40.0	0	0.7	57.8	62.8	0	5	0	0	6	73.2	72.3	0.0
2017 08/12 01:15	60.2	77.4	231.7	8.3	30.36	72.3	0.0	13.01	-40.0	0	0.9	56.9	62.4	0	5	0	0	6	73.6	72.3	0.0
2017 08/12 01:30	60.4	71.7	250.9	15.2	30.35	72.1	0.0	12.99	-39.9	0	0.8	57.8	63.1	0	5	0	0	6	72.6	72.1	0.0
2017 08/12 01:45	59.0	88.9	263.6	12.0	30.35	71.7	0.0	13.02	-40.0	0	0.9	56.9	62.3	0	5	0	0	6	72.6	71.9	0.0
2017 08/12 02:00	58.2	91.7	245.5	14.0	30.34	71.4	0.0	13.02	-40.0	0	0.7	56.9	62.1	0	5	0	0	6	72.6	71.7	0.0
2017 08/12 02:15	57.3	94.4	258.6	12.6	30.34	71.2	0.0	13.00	-40.0	0	0.9	56.0	61.6	0	5	0	0	6	72.3	71.5	0.0
2017 08/12 02:30	57.5	94.4	259.7	15.5	30.33	71.0	0.0	12.99	-40.1	0	0.9	56.0	61.1	0	5	0	0	6	72.0	71.4	0.0
2017 08/12 02:45	56.8	95.5	262.7	11.4	30.33	70.7	0.0	13.01	-39.9	0	0.9	55.1	60.9	0	5	0	0	6	71.7	71.2	0.0
2017 08/12 03:00	56.6	95.3	269.3	11.4	30.33	70.4	0.0	13.00	-39.9	0	0.9	55.1	61.2	0	5	0	0	6	70.9	71.0	0.0
2017 08/12 03:15	56.9	94.6	258.1	11.7	30.32	70.1	0.0	13.02	-40.0	0	0.7	56.0	61.2	0	5	0	0	6	71.0	70.9	0.0
2017 08/12 03:30	56.7	96.4	265.1	14.0	30.31	69.9	0.0	13.01	-40.0	0	0.9	55.1	60.2	0	5	0	0	6	70.4	70.6	0.0
2017 08/12 03:45	56.9	93.3	266.3	13.4	30.31	69.7	0.0	12.99	-40.0	0	1.1	55.1	59.8	0	5	0	0	6	69.9	70.4	0.0
2017 08/12 04:00	56.8	93.9	264.0	13.8	30.31	69.3	0.0	13.00	-39.9	0	0.9	55.1	58.9	0	5	0	0	6	69.5	70.2	0.0
2017 08/12 04:15	56.6	95.6	254.3	14.2	30.30	69.1	0.0	13.02	-40.0	0	1.0	55.1	58.0	0	5	0	0	6	69.4	70.0	0.0
2017 08/12 04:30	56.1	97.4	247.0	15.1	30.29	68.9	0.0	13.01	-39.9	0	0.9	55.1	58.4	0	5	0	0	6	69.2	69.8	0.0
2017 08/12 04:45	56.0	97.3	248.2	14.1	30.29	68.6	0.0	13.01	-40.0	0	0.8	55.1	58.4	0	5	0	0	6	69.1	69.5	0.0
2017 08/12 05:00	56.3	96.3	255.5	15.1	30.28	68.3	0.0	13.02	-39.9	0	0.9	55.1	58.4	0	5	0	0	6	68.9	69.4	0.0
2017 08/12 05:15	56.2	97.3	249.9	17.4	30.28	68.0	-0.3	13.00	-40.1	0	0.8	55.1	57.8	0	5	0	0	6	68.5	69.3	0.0
2017 08/12 05:30	55.1	99.1	233.9	17.6	30.27	67.8	0.7	13.02	-40.0	0	0.7	54.2	58.3	0	5	0	0	6	68.0	69.1	0.0
2017 08/12 05:45	55.4	99.5	243.8	18.1	30.27	67.6	7.1	13.01	-39.9	0	0.8	54.2	58.4	0	5	0	0	6	68.0	69.0	0.0
2017 08/12 06:00	55.2	99.6	239.1	20.5	30.27	67.3	79.7	12.99	-40.1	0	0.9	54.2	57.7	0	5	0	0	6	67.5	68.9	0.0
2017 08/12 06:15	55.2	100.1	234.6	20.0	30.26	67.0	247.2	13.00	-40.0	0	0.7	54.2	57.9	0	5	0	0	6	67.3	68.7	0.0
2017 08/12 06:30	55.2	100.2	236.6	19.5	30.26	66.7	397.8	13.01	-40.0	0	0.7	53.3	57.6	0	5	0	0	6	66.9	68.6	0.0
2017 08/12 06:45	55.9	100.3	238.5	19.9	30.26	66.5	557.9	12.99	-39.9	0	0.9	54.2	57.4	0	5	0	0	6	66.8	68.5	0.0
2017 08/12 07:00	54.8	100.3	233.9	19.5	30.26	66.2	662.0	12.99	-40.0	0	0.9	55.1	58.4	0	5	0	0	6	66.6	68.4	0.0
2017 08/12 07:15	55.4	100.2	229.8	23.1	30.25	65.9	717.0	13.01	-39.9	0	0.7	56.0	59.5	0	5	0	0	6	66.4	68.4	0.0
2017 08/12 07:30	55.9	94.0	229.2	23.4	30.25	65.7	745.0	12.99	-39.9	0	0.9	56.0	60.2	0	5	0	0	6	66.4	68.3	0.0
2017 08/12 07:45	56.3	84.7	231.9	22.9	30.25	65.4	770.0	13.00	-39.9	0	0.8	56.9	59.3	0	5	0	0	6	66.4	68.3	0.0
2017 08/12 08:00	56.6	86.5	238.2	20.2	30.25	65.3	788.0	13.01	-39.9	0	0.7	57.8	59.4	0	5	0	0	6	66.1	68.3	0.0
2017 08/12 08:15	56.6	85.7	230.7	18.8	30.25	65.1	800.0	12.99	-40.1	0	0.8	58.7	60.0	0	5	0	0	6	66.3	68.3	0.0
2017 08/12 08:30	56.8	86.7	218.6	15.5	30.25	65.0	807.0	13.01	-40.0	0	0.8	58.7	60.3	0	5	0	0	6	66.5	68.3	0.0
2017 08/12 08:45	57.0	87.4	244.0	13.2	30.25	64.8	813.0	13.02	-40.0	0	0.8	59.6	60.6	0	5	0	0	6	66.8	68.3	0.0
2017 08/12 09:00	57.1	92.2	234.5	10.7	30.26	64.7	820.0	12.99	-39.9	0	1.1	59.6	62.3	0	5	0	0	6	66.9	68.4	0.0
2017 08/12 09:15	57.3	91.6	243.2	12.7	30.26	64.6	824.0	13.01	-40.0	0	0.9	60.5	63.3	0	5	0	0	6	67.0	68.6	0.0
2017 08/12 09:30	57.6	91.3	240.8	12.0	30.25	64.5	828.0	13.01	-40.0	0	0.9	60.5	63.7	0	5	0	0	6	67.4	69.0	0.0
2017 08/12 09:45	58.7	84.5	226.0	14.6	30.25	64.4	832.0	13.01	-39.9	0	0.7	62.3	65.1	0	5	0	0	6	68.2	69.5	0.0
2017 08/12 10:00	59.2	78.8	222.6	14.4	30.25	64.5	834.0	13.03	-40.0	0	0.9	62.3	66.0	0	5	0	0	6	68.5	70.1	0.0
2017 08/12 10:15	59.8	76.5	221.0	15.9	30.25	64.3	836.0	12.99	-40.0	0	0.7	64.1	67.4	0	5	0	0	6	69.2	70.6	0.0
2017 08/12 10:30	59.2	70.3	237.5	18.7	30.25	64.5	839.0	13.01	-39.9	0	0.6	64.1	68.1	0	5	0	0	6	70.0	71.5	0.0
2017 08/12 10:45	61.1	67.6	251.6	17.4	30.26	64.4	841.0	12.99	-40.0	0	0.9	65.0	69.2	0	5	0	0	6	71.2	72.3	0.0
2017 08/12 11:00	60.4	71.0	234.0	20.1	30.26	64.4	843.0	13.00	-40.0	0	1.2	65.0	69.4	0	5	0	0	6	72.2	73.1	0.0
2017 08/12 11:15	60.3	64.9	237.0	18.9	30.27	64.5	846.0	13.00	-40.0	0	1.3	65.0	70.3	0	5	0	0	6	73.1	73.8	0.0
2017 08/12 11:30	61.5	56.2	242.6	18.5	30.27	64.5	846.0	13.01	-39.9	0	0.6	65.9	70.4	0	5	0	0	6	74.3	74.3	0.0
2017 08/12 11:45	62.7	56.9	269.6	17.2	30.27	64.7	846.0	12.99	-40.0	0	0.8	66.8	71.4	0	5	0	0	6	75.3	74.9	0.0
2017 08/12 12:00	63.8	52.0	240.6	10.4	30.27	64.8	843.0	13.00	-40.0	0	0.8	67.7	71.8	0	5	0	0	6	76.2	75.5	0.0
2017 08/12 12:15	65.9	28.9	223.6	10.0	30.27	64.8	847.0	13.01	-40.0	0	0.8	67.7	72.6	0	5	0	0	6	76.7	75.7	0.0
2017 08/12 12:30	66.6	35.8	160.1	11.3	30.27	64.8	846.0	13.01	-40.0	0	0.6	67.7	74.0	0	5	0	0	6	77.5	76.3	0.0
2017 08/12 12:45	64.6	31.5	229.4	18.1	30.27	64.9	847.0	12.99	-40.1	0	0.2	68.6	75.8	0	5	0	0	6	78.2	76.5	0.0
2017 08/12 13:00	64.6	29.9	219.9	18.2	30.27	65.0	856.0	13.01	-39.9	0	0.4	71.3	75.6	0	5	0	0	6	79.0	76.8	0.0
2017 08/12 13:15	65.0	31.6	247.1	18.0	30.27	65.1	856.0	13.00	-40.0	0	0.2	73.1	75.7	0	5	0	0	6	79.3	77.1	0.0
2017 08/12 13:30	66.0	32.7	187.3	17.8	30.27	65.2	857.0	13.01	-40.0	0	0.4	71.3	76.5	0	5	0	0	6	79.9	77.3	0.0
2017 08/12 13:45	66.1	30.5	237.5	20.8	30.27	65.3	853.0	12.99	-40.0	0	0.0	71.3	77.5	0	5	0	0	6	80.2	77.4	0.0
2017 08/12 14:00	66.5	25.5	219.5	17.9	30.27	65.4	855.0	13.01	-39.9	0	0.3	72.2	77.8	0	5	0	0	6	80.5	77.4	0.0
2017 08/12 14:15	65.7	31.8	257.5	24.6	30.27	65.4	853.0	13.01	-40.1	0	0.6	71.3	76.8	0	5	0	0	6	80.7	77.5	0.0
2017 08/12 14:30	66.8	26.1	228.9	15.1	30.28	65.6	861.0	13.01	-40.0	0	-0.1	70.4	76.3	0	5	0	0	6	80.7	77.5	0.0
2017 08/12 14:45	67.2	25.7	235.3	16.8	30.28	65.7	866.0	13.00	-39.9	0	-0.2	70.4	77.7	0	5	0	0	6	80.7	77.1	0.0
2017 08/12 15:00	67.4	26.3	180.6	17.9	30.27	65.8	867.0	13.03	-40.0	0	0.0	71.3	78.9	0	5	0	0	6	80.5	76.8	0.0
2017 08/12 15:15	66.3	29.2	238.5	27.4	30.27	65.9	868.0	13.00	-40.0	0	0.3	70.4	77.5	0	5	0	0	6	80.5	76.5	0.0
2017 08/12 15:30	67.1	29.9	239.4	19.9	30.27	66.0	872.0	13.00	-40.0	0	1.0	71.3	76.7	0	5	0	0	6	80.8	76.3	0.0
2017 08/12 15:45	66.8	31.3	239.8	22.1	30.26	66.1	871.0	13.01	-39.9	0	0.0	71.3	76.3	0	5	0	0	6	80.8	76.0	0.0
2017 08/12 16:00	67.0	33.0	240.5	19.4	30.27	66.3	874.0	13.00	-40.0	0	-0.2	70.4	76.2	0	5	0	0	6	81.0	75.7	0.0
2017 08/12 16:15	65.4	36.8	200.8	23.2	30.26	66.4	875.0	13.00	-40.0	0	-0.2	71.3	75.9	0	5	0	0	6	81.1	75.6	0.0
2017 08/12 16:30	65.3	30.9	220.2	32.9	30.26	66.6	872.0	12.98	-40.0	0	0.2	69.5	77.5	0	5	0	0	6	81.1	75.4	0.0
2017 08/12 16:45	65.5	28.5	240.9	35.1	30.26	66.7	872.0	12.98	-40.0	0	-0.2	68.6	76.8	0	5	0	0	6	81.3	75.1	0.0
2017 08/12 17:00	64.6	32.4	238.2	30.1	30.26	66.9	878.0	12.98	-40.1	0	0.3	68.6	75.7	0	5	0	0	6	81.5	74.7	0.0
2017 08/12 17:15	64.0	34.5	245.4	33.5	30.26	67.0	884.0	12.97	-40.0	0	0.1	67.7	75.3	0	5	0	0	6	81.7	74.5	0.0
2017 08/12 17:30	63.7	37.6	258.9	28.2	30.26	67.3	899.0	12.99	-40.0	0	0.2	66.8	74.7	0	5	0	0	6	81.8	74.3	0.0
2017 08/12 17:45	61.6	42.6	233.7	27.6	30.26	67.4	941.0	13.00	-40.0	0	-0.4	66.8	74.5	0	5	0	0	6	81.9	74.0	0.0
2017 08/12 18:00	62.3	50.9	230.1	23.3	30.27	67.6	954.0	13.01	-39.9	0	0.2	65.9	73.2	0	5	0	0	6	81.9	73.8	0.0
2017 08/12 18:15	62.0	54.5	224.8	24.8	30.27	67.8	952.0	12.99	-39.9	0	0.2	64.1	73.1	0	5	0	0	6	81.8	73.7	0.0
2017 08/12 18:30	62.3	56.8	259.5	14.6	30.27	68.0	956.0	12.98	-40.0	0	0.2	63.2	71.3	0	5	0	0	6	81.3	73.5	0.0
2017 08/12 18:45	60.5	68.3	278.3	15.8	30.27	68.2	941.0	12.99	-40.0	0	-0.1	62.3	68.4	0	5	0	0	6	81.1	73.2	0.0
2017 08/12 19:00	57.7	78.7	192.5	16.6	30.27	68.3	807.0	13.02	-40.1	0	0.2	59.6	67.0	0	5	0	0	6	80.5	73.0	0.0
2017 08/12 19:15	56.8	84.0	270.7	11.3	30.28	68.5	826.0	12.99	-40.1	0	0.5	58.7	65.0	0	5	0	0	6	80.0	72.8	0.0
2017 08/12 19:30	56.1	87.5	245.1	17.6	30.29	68.7	722.0	12.99	-40.0	0	0.6	57.8	64.3	0	5	0	0	6	79.4	72.6	0.0
2017 08/12 19:45	55.2	90.9	255.1	16.5	30.29	68.8	602.3	12.99	-40.1	0	0.4	57.8	63.6	0	5	0	0	6	78.6	72.2	0.0
2017 08/12 20:00	55.2	92.4	246.3	17.8	30.30	68.8	303.2	13.01	-40.0	0	0.4	56.9	63.3	0	5	0	0	6	78.2	72.1	0.0
2017 08/12 20:15	53.9	95.0	254.2	26.4	30.29	68.9	67.8	12.99	-40.0	0	0.5	56.0	62.7	0	5	0	0	6	77.7	71.9	0.0
2017 08/12 20:30	54.1	96.3	211.6	21.9	30.30	68.8	8.5	12.98	-39.9	0	0.4	56.0	62.2	0	5	0	0	6	77.2	71.7	0.0
2017 08/12 20:45	53.5	97.0	282.0	16.7	30.30	68.7	0.7	12.99	-40.0	0	0.6	55.1	61.8	0	5	0	0	6	76.6	71.3	0.0
2017 08/12 21:00	53.5	95.7	242.5	23.6	30.30	68.7	0.0	12.98	-40.1	0	0.3	55.1	61.0	0	5	0	0	6	76.2	71.1	0.0
2017 08/12 21:15	52.3	96.2	237.5	23.2	30.30	68.5	0.0	13.01	-40.0	0	0.6	54.2	60.5	0	5	0	0	6	75.8	71.0	0.0
2017 08/12 21:30	52.4	96.4	266.5	15.9	30.30	68.3	-0.3	13.01	-39.9	0	0.5	54.2	60.4	0	5	0	0	6	75.5	70.8	0.0
2017 08/12 21:45	51.9	97.1	287.9	13.1	30.30	68.2	0.0	13.02	-39.9	0	0.5	53.3	59.8	0	5	0	0	6	75.0	70.5	0.0
2017 08/12 22:00	52.3	98.7	221.0	15.8	30.30	68.0	-0.3	12.99	-40.1	0	0.6	53.3	59.8	0	5	0	0	6	74.7	70.3	0.0
2017 08/12 22:15	51.1	99.2	232.7	20.2	30.30	67.8	0.0	13.02	-40.0	0	0.3	53.3	59.5	0	5	0	0	6	74.5	70.1	0.0
2017 08/12 22:30	51.5	99.4	243.5	18.0	30.29	67.6	-0.3	13.00	-40.0	0	0.5	52.4	59.1	0	5	0	0	6	74.0	70.0	0.0
2017 08/12 22:45	51.0	99.9	241.2	18.6	30.29	67.4	0.0	12.99	-40.0	0	0.2	52.4	59.1	0	5	0	0	6	73.7	69.8	0.0
2017 08/12 23:00	51.2	100.1	226.0	19.4	30.28	67.0	0.0	13.00	-39.9	0	0.4	52.4	58.6	0	5	0	0	6	73.4	69.5	0.0
2017 08/12 23:15	50.2	100.3	224.6	21.6	30.28	66.8	0.0	13.02	-40.0	0	0.5	51.5	58.2	0	5	0	0	6	73.0	69.4	0.0
2017 08/12 23:30	49.4	100.3	236.9	21.1	30.27	66.5	0.0	13.01	-39.9	0	0.5	51.5	57.4	0	5	0	0	6	72.8	69.2	0.0
2017 08/12 23:45	49.5	100.3	232.4	21.9	30.26	66.3	-0.3	12.99	-40.0	0	0.5	50.6	57.3	0	5	0	0	6	72.2	69.0	0.0
2017 08/13 00:00	49.1	100.6	239.7	18.9	30.26	66.0	0.0	13.01	-40.0	0	0.5	50.6	56.9	0	5	0	0	6	72.1	68.9	0.0
2017 08/13 00:15	49.9	100.5	245.4	21.2	30.26	65.7	0.0	13.01	-40.0	0	0.5	50.6	56.8	0	5	0	0	6	72.1	68.9	0.0
2017 08/13 00:30	49.0	100.5	227.0	18.6	30.25	65.4	-0.3	12.99	-40.0	0	0.4	50.6	56.9	0	5	0	0	6	72.1	68.9	0.0
2017 08/13 00:45	48.8	100.5	249.4	14.7	30.25	65.2	0.0	13.00	-39.9	0	0.5	50.6	56.5	0	5	0	0	6	72.1	68.9	0.0
2017 08/13 01:00	48.4	100.6	271.2	16.9	30.25	64.8	-0.3	13.00	-40.0	0	0.2	50.6	56.4	0	5	0	0	6	72.1	68.9	0.0
2017 08/13 01:15	48.6	100.7	257.8	15.8	30.24	64.5	0.0	13.01	-40.0	0	0.5	49.7	56.1	0	5	0	0	6	72.1	68.9	0.0
2017 08/13 01:30	49.0	100.8	244.2	14.7	30.24	64.3	-0.3	12.99	-40.0	0	0.6	49.7	55.8	0	5	0	0	6	72.1	68.9	0.0
2017 08/13 01:45	48.3	100.8	239.9	17.9	30.23	64.0	0.0	12.99	-40.0	0	0.5	49.7	56.0	0	5	0	0	6	72.1	68.9	0.0
2017 08/13 02:00	48.8	100.7	260.2	21.9	30.22	63.7	0.0	12.98	-40.0	0	0.4	49.7	55.9	0	5	0	0	6	72.1	68.9	0.0
2017 08/13 02:15	48.5	100.9	234.8	21.6	30.21	63.4	0.0	12.99	-40.0	0	0.4	49.7	55.7	0	5	0	0	6	72.1	68.9	0.0
2017 08/13 02:30	48.4	100.9	259.2	23.3	30.21	63.1	-0.3	12.99	-40.1	0	0.4	49.7	55.3	0	5	0	0	6	72.1	68.9	0.0
2017 08/13 02:45	48.2	100.9	236.7	21.9	30.20	62.7	0.0	12.99	-40.0	0	0.6	48.8	55.0	0	5	0	0	6	72.1	68.9	0.0
2017 08/13 03:00	48.0	100.9	240.3	20.4	30.20	62.4	-0.3	13.01	-40.0	0	0.5	48.8	54.7	0	5	0	0	6	72.1	68.9	0.0
2017 08/13 03:15	48.0	101.0	209.1	23.4	30.19	62.1	-0.3	13.01	-40.0	0	0.5	48.8	54.6	0	5	0	0	6	72.1	68.9	0.0
2017 08/13 03:30	47.9	100.9	242.2	26.0	30.19	61.8	0.0	12.99	-39.9	0	0.4	48.8	54.1	0	5	0	0	6	72.1	68.9	0.0
2017 08/13 03:45	47.8	101.1	241.7	18.1	30.19	61.6	0.0	13.01	-39.9	0	0.4	48.8	54.1	0	5	0	0	6	72.1	68.9	0.0
2017 08/13 04:00	47.4	101.1	254.6	21.3	30.18	61.1	0.0	12.99	-40.0	0	0.4	47.9	53.9	0	5	0	0	6	72.1	68.9	0.0
2017 08/13 04:15	46.8	101.1	239.1	21.2	30.18	60.9	0.0	12.99	-40.0	0	0.5	47.9	53.9	0	5	0	0	6	72.1	68.9	0.0
2017 08/13 04:30	46.6	101.2	253.0	23.9	30.17	60.6	0.0	12.99	-40.0	0	0.4	47.9	53.7	0	5	0	0	6	72.1	68.9	0.0
2017 08/13 04:45	45.7	101.2	262.4	17.9	30.17	60.3	0.0	12.99	-40.0	0	0.4	47.9	53.7	0	5	0	0	6	72.1	68.9	0.0
2017 08/13 05:00	46.1	101.2	238.6	23.8	30.17	60.1	0.0	12.99	-39.9	0	0.3	47.9	53.7	0	5	0	0	6	72.1	68.9	0.0
2017 08/13 05:15	46.0	101.2	238.8	22.1	30.17	59.8	-0.3	13.01	-39.9	0	0.4	47.9	53.9	0	5	0	0	6	72.1	68.9	0.0
2017 08/13 05:30	45.6	101.1	260.5	19.8	30.17	59.5	0.3	12.99	-39.9	0	0.4	47.9	54.2	0	5	0	0	6	72.1	68.9	0.0
2017 08/13 05:45	46.2	101.2	288.6	17.5	30.16	59.3	1.7	13.01	-40.0	0	0.4	47.9	53.8	0	5	0	0	6	72.1	68.9	0.0
2017 08/13 06:00	46.2	101.2	244.1	17.1	30.16	58.9	14.9	12.99	-40.0	0	0.6	47.0	53.9	0	5	0	0	6	72.1	68.9	0.0
2017 08/13 06:15	46.6	101.2	246.6	16.1	30.16	58.6	58.0	12.99	-40.0	0	0.6	47.0	53.9	0	5	0	0	6	72.1	68.9	0.0
2017 08/13 06:30	46.4	101.2	229.3	17.3	30.16	58.4	256.1	13.00	-40.0	0	0.4	47.0	53.3	0	5	0	0	6	72.1	68.9	0.0
2017 08/13 06:45	45.7	101.2	235.1	18.9	30.15	58.1	278.2	12.99	-40.1	0	0.7	46.1	53.4	0	5	0	0	6	72.1	68.9	0.0
2017 08/13 07:00	44.9	101.1	237.0	16.6	30.15	57.8	304.7	13.00	-39.9	0	0.6	46.1	52.8	0	5	0	0	6	72.1	68.9	0.0
2017 08/13 07:15	45.6	101.2	219.8	16.6	30.15	57.6	373.9	13.00	-40.0	0	0.6	46.1	52.8	0	5	0	0	6	72.1	68.9	0.0
2017 08/13 07:30	44.4	101.0	238.2	16.5	30.15	57.4	417.6	13.01	-40.0	0	0.6	46.1	53.0	0	5	0	0	6	72.1	68.9	0.0
2017 08/13 07:45	44.0	101.0	215.7	14.5	30.15	57.0	343.7	13.01	-40.0	0	0.5	46.1	52.8	0	5	0	0	6	72.1	68.9	0.0
2017 08/13 08:00	45.3	101.1	245.5	13.9	30.16	56.7	568.3	13.01	-40.0	0	0.6	46.1	53.0	0	5	0	0	6	72.1	68.9	0.0
2017 08/13 08:15	44.3	101.1	232.4	11.9	30.15	56.5	735.0	12.99	-39.9	0	0.4	47.0	53.1	0	5	0	0	6	72.1	68.9	0.0
2017 08/13 08:30	44.6	101.2	247.0	15.4	30.16	56.3	650.4	12.99	-39.9	0	0.4	47.0	53.2	0	5	0	0	6	72.1	68.9	0.0
2017 08/13 08:45	43.9	101.0	239.0	18.0	30.15	56.1	725.0	13.01	-40.1	0	0.6	46.1	53.1	0	5	0	0	6	72.1	68.9	0.0
2017 08/13 09:00	44.1	101.1	213.6	20.4	30.15	55.9	765.0	12.99	-40.1	0	0.5	47.0	53.7	0	5	0	0	6	72.1	68.9	0.0
2017 08/13 09:15	44.3	101.2	220.5	20.1	30.15	55.6	803.0	13.01	-39.9	0	0.4	47.9	54.9	0	5	0	0	6	72.1	68.9	0.0
2017 08/13 09:30	44.8	101.0	224.1	22.0	30.15	55.4	787.0	13.01	-39.9	0	0.6	47.0	54.8	0	5	0	0	6	72.1	68.9	0.0
2017 08/13 09:45	45.4	101.2	221.9	18.8	30.14	55.2	797.0	12.99	-39.9	0	0.6	47.9	54.9	0	5	0	0	6	72.1	68.9	0.0
2017 08/13 10:00	45.4	101.2	232.0	20.5	30.15	55.0	799.0	13.01	-39.9	0	0.6	47.9	54.6	0	5	0	0	6	72.1	68.9	0.0
2017 08/13 10:15	45.7	101.1	202.3	14.9	30.15	54.8	761.0	13.00	-40.0	0	0.5	47.9	54.6	0	5	0	0	6	72.1	68.9	0.0
2017 08/13 10:30	46.4	101.2	229.7	15.3	30.15	54.6	847.0	12.99	-40.0	0	0.4	47.9	54.9	0	5	0	0	6	72.1	68.9	0.0
2017 08/13 10:45	46.1	101.1	250.0	15.8	30.15	54.4	854.0	13.01	-40.1	0	0.4	47.9	54.3	0	5	0	0	6	72.1	68.9	0.0
2017 08/13 11:00	46.1	101.2	221.2	15.3	30.15	54.1	837.0	13.01	-40.0	0	0.6	47.9	54.3	0	5	0	0	6	72.1	68.9	0.0
2017 08/13 11:15	47.6	101.2	244.8	10.7	30.14	54.1	864.0	13.01	-39.9	0	0.4	48.8	55.6	0	5	0	0	6	72.1	68.9	0.0
2017 08/13 11:30	47.0	101.2	228.3	15.8	30.15	53.9	765.0	12.99	-39.9	0	0.6	47.9	55.5	0	5	0	0	6	72.1	68.9	0.0
2017 08/13 11:45	46.2	101.1	223.5	15.1	30.15	53.7	816.0	12.99	-40.0	0	0.6	47.9	55.5	0	5	0	0	6	72.1	68.9	0.0
2017 08/13 12:00	46.5	101.2	220.6	15.8	30.14	53.7	782.0	12.99	-39.9	0	0.6	47.9	55.5	0	5	0	0	6	72.1	68.9	0.0
2017 08/13 12:15	47.2	101.2	243.9	18.4	30.14	53.5	791.0	12.99	-40.0	0	0.5	47.9	55.5	0	5	0	0	6	72.1	68.9	0.0
2017 08/13 12:30	47.5	101.2	207.3	21.4	30.14	53.5	818.0	12.99	-40.0	0	0.4	48.8	55.7	0	5	0	0	6	72.1	68.9	0.0
2017 08/13 12:45	47.3	101.1	226.9	15.9	30.14	53.3	833.0	12.99	-39.9	0	0.5	48.8	56.2	0	5	0	0	6	72.1	68.9	0.0
2017 08/13 13:00	48.7	101.0	227.4	11.4	30.15	53.3	850.0	13.02	-40.0	0	0.6	48.8	56.0	0	5	0	0	6	72.1	68.9	0.0
2017 08/13 13:15	48.7	101.2	226.8	14.8	30.14	53.1	772.0	13.01	-40.0	0	0.5	48.8	56.0	0	5	0	0	6	72.1	68.9	0.0
2017 08/13 13:30	47.6	101.2	222.4	14.2	30.14	53.1	829.0	13.00	-40.0	0	0.6	49.7	56.7	0	5	0	0	6	72.1	68.9	0.0
2017 08/13 13:45	48.1	101.2	233.5	9.4	30.14	53.1	831.0	13.02	-39.9	0	0.4	51.5	56.6	0	5	0	0	6	72.1	68.9	0.0
2017 08/13 14:00	48.8	101.2	256.3	5.8	30.14	52.9	834.0	13.01	-39.9	0	0.1	51.5	57.1	0	5	0	0	6	72.1	68.9	0.0
2017 08/13 14:15	48.5	101.3	202.1	7.9	30.14	52.9	756.0	12.98	-40.0	0	0.0	50.6	57.6	0	5	0	0	6	72.1	68.9	0.0
2017 08/13 14:30	49.5	101.2	262.7	12.7	30.14	52.9	722.0	13.01	-39.9	0	0.3	50.6	56.8	0	5	0	0	6	72.1	68.9	0.0
2017 08/13 14:45	48.2	101.3	250.1	11.9	30.13	52.8	734.0	13.00	-39.9	0	0.2	50.6	56.2	0	5	0	0	6	72.1	68.9	0.0
2017 08/13 15:00	48.7	101.4	279.9	15.3	30.13	52.6	708.0	13.01	-39.9	0	0.4	49.7	55.9	0	5	0	0	6	72.1	68.9	0.0
2017 08/13 15:15	47.5	101.3	265.1	11.8	30.13	52.6	701.0	13.01	-40.0	0	0.4	49.7	55.8	0	5	0	0	6	72.1	68.9	0.0
2017 08/13 15:30	48.8	101.2	273.2	11.7	30.13	52.6	724.0	12.99	-39.9	0	0.4	49.7	55.6	0	5	0	0	6	72.1	68.9	0.0
2017 08/13 15:45	49.9	101.4	252.6	12.1	30.12	52.6	701.0	12.99	-40.0	0	0.4	50.6	56.8	0	5	0	0	6	72.1	68.9	0.0
2017 08/13 16:00	48.9	101.3	258.1	8.8	30.12	52.5	704.0	13.01	-39.9	0	0.4	50.6	57.1	0	5	0	0	6	72.1	68.9	0.0
2017 08/13 16:15	49.8	101.4	231.8	13.2	30.12	52.4	700.0	13.01	-40.1	0	0.5	50.6	57.3	0	5	0	0	6	72.1	68.9	0.0
2017 08/13 16:30	49.3	101.3	274.5	13.4	30.13	52.4	707.0	13.00	-39.9	0	0.5	49.7	56.2	0	5	0	0	6	72.1	68.9	0.0
2017 08/13 16:45	50.8	101.4	274.3	8.2	30.13	52.4	788.0	13.03	-40.0	0	0.4	50.6	56.2	0	5	0	0	6	72.1	68.9	0.0
2017 08/13 17:00	49.8	101.4	190.5	9.2	30.12	52.2	713.0	13.00	-40.1	0	0.5	51.5	56.4	0	5	0	0	6	72.1	68.9	0.0
2017 08/13 17:15	49.3	101.4	264.7	10.0	30.12	52.2	809.0	13.00	-40.0	0	0.3	51.5	56.5	0	5	0	0	6	72.1	68.9	0.0
2017 08/13 17:30	48.9	101.4	308.2	13.8	30.12	52.2	657.5	12.99	-40.0	0	0.4	50.6	56.6	0	5	0	0	6	72.1	68.9	0.0
2017 08/13 17:45	49.2	101.3	277.6	12.6	30.12	52.2	672.8	12.99	-40.0	0	0.4	51.5	56.5	0	5	0	0	6	72.1	68.9	0.0
2017 08/13 18:00	48.5	101.3	237.6	11.4	30.11	52.2	703.0	13.01	-39.9	0	0.6	50.6	56.7	0	5	0	0	6	72.1	68.9	0.0
2017 08/13 18:15	48.4	101.4	263.9	15.2	30.11	52.1	816.0	13.01	-40.0	0	0.4	51.5	56.5	0	5	0	0	6	72.1	68.9	0.0
2017 08/13 18:30	49.4	101.4	251.7	13.5	30.10	52.0	839.0	13.01	-40.1	0	0.4	51.5	56.9	0	5	0	0	6	72.1	68.9	0.0
2017 08/13 18:45	47.1	101.4	261.5	16.1	30.09	52.0	826.0	13.01	-40.0	0	0.3	51.5	56.8	0	5	0	0	6	72.1	68.9	0.0
2017 08/13 19:00	48.2	101.2	310.8	13.5	30.09	52.0	856.0	13.01	-40.0	0	0.3	51.5	56.6	0	5	0	0	6	72.1	68.9	0.0
2017 08/13 19:15	48.4	100.7	299.9	13.7	30.09	52.0	847.0	13.02	-40.0	0	0.2	51.5	55.8	0	5	0	0	6	72.1	68.9	0.0
2017 08/13 19:30	48.4	99.3	284.5	10.4	30.10	52.0	836.0	13.01	-40.0	0	0.4	49.7	55.2	0	5	0	0	6	72.1	68.9	0.0
2017 08/13 19:45	47.9	100.2	286.5	12.4	30.10	52.0	892.0	13.01	-39.9	0	0.4	48.8	54.6	0	5	0	0	6	72.1	68.9	0.0
2017 08/13 20:00	47.0	100.2	284.2	9.7	30.10	52.0	583.9	13.01	-40.0	0	0.4	47.9	54.2	0	5	0	0	6	72.1	68.9	0.0
2017 08/13 20:15	47.7	100.9	303.2	8.6	30.09	52.0	205.6	13.02	-40.0	0	0.4	47.9	54.0	0	5	0	0	6	72.1	68.9	0.0
2017 08/13 20:30	47.2	101.1	193.6	9.7	30.09	52.2	44.4	13.03	-40.1	0	0.2	47.9	53.3	0	5	0	0	6	72.1	68.9	0.0
2017 08/13 20:45	47.3	101.0	274.6	12.7	30.09	52.2	4.8	13.01	-40.0	0	0.5	47.0	53.2	0	5	0	0	6	72.1	68.9	0.0
2017 08/13 21:00	45.3	101.1	265.8	12.4	30.09	52.4	0.3	13.01	-39.9	0	0.3	47.0	52.8	0	5	0	0	6	72.1	68.9	0.0
2017 08/13 21:15	46.2	101.2	246.9	10.6	30.10	52.4	0.0	13.01	-40.1	0	0.3	47.0	52.3	0	5	0	0	6	72.1	68.9	0.0
2017 08/13 21:30	46.1	101.2	250.4	14.7	30.10	52.5	0.0	13.00	-40.1	0	0.4	46.1	52.2	0	5	0	0	6	72.1	68.9	0.0
2017 08/13 21:45	45.6	101.2	263.1	8.3	30.11	52.6	0.0	13.01	-39.9	0	0.4	46.1	51.9	0	5	0	0	6	72.1	68.9	0.0
2017 08/13 22:00	45.5	101.2	273.1	12.4	30.11	52.6	0.0	13.01	-39.9	0	0.3	46.1	51.7	0	5	0	0	6	72.1	68.9	0.0
2017 08/13 22:15	45.1	101.2	272.8	12.0	30.10	52.6	0.0	13.01	-40.0	0	0.4	45.2	51.2	0	5	0	0	6	72.1	68.9	0.0
2017 08/13 22:30	43.8	101.3	275.3	12.2	30.10	52.6	0.0	13.01	-40.0	0	0.3	45.2	50.6	0	5	0	0	6	72.1	68.9	0.0
2017 08/13 22:45	44.8	101.4	292.0	14.8	30.10	52.6	0.0	12.99	-40.0	0	0.6	44.3	50.5	0	5	0	0	6	72.1	68.9	0.0
2017 08/13 23:00	44.0	101.3	270.0	12.2	30.10	52.6	0.0	13.01	-39.9	0	0.4	44.3	50.3	0	5	0	0	6	72.1	68.9	0.0
2017 08/13 23:15	44.8	101.4	312.2	8.8	30.10	52.6	0.0	13.00	-39.9	0	0.5	43.4	49.9	0	5	0	0	6	72.1	68.9	0.0
2017 08/13 23:30	44.5	101.2	289.2	11.4	30.10	52.6	0.0	12.99	-40.1	0	0.5	43.4	49.4	0	5	0	0	6	72.1	68.9	0.0
2017 08/13 23:45	43.2	101.4	299.4	10.4	30.10	52.6	0.0	13.02	-40.1	0	0.6	43.4	49.3	0	5	0	0	6	72.1	68.9	0.0
2017 08/14 00:00	43.5	101.2	279.1	11.2	30.10	52.6	0.0	13.01	-39.9	0	0.5	43.4	49.0	0	5	0	0	6	72.1	68.9	0.0
2017 08/14 00:15	43.5	101.3	290.8	11.3	30.09	52.5	0.0	13.03	-40.1	0	0.5	43.4	49.0	0	5	0	0	6	72.1	68.9	0.0
2017 08/14 00:30	44.4	101.3	294.4	10.7	30.09	52.4	0.0	13.00	-40.0	0	0.7	43.4	49.2	0	5	0	0	6	72.1	68.9	0.0
2017 08/14 00:45	43.7	101.3	303.0	14.2	30.09	52.4	0.0	13.01	-39.9	0	0.5	43.4	49.4	0	5	0	0	6	72.1	68.9	0.0
2017 08/14 01:00	43.5	101.5	278.5	10.9	30.09	52.3	0.0	13.02	-39.9	0	0.5	43.4	49.0	0	5	0	0	6	72.1	68.9	0.0
2017 08/14 01:15	43.2	101.4	270.2	10.7	30.09	52.2	0.0	13.02	-40.1	0	0.5	43.4	48.9	0	5	0	0	6	72.1	68.9	0.0
2017 08/14 01:30	43.3	101.4	290.5	7.3	30.08	52.2	0.0	13.02	-39.9	0	0.5	43.4	49.0	0	5	0	0	6	72.1	68.9	0.0
2017 08/14 01:45	42.4	101.4	271.1	7.8	30.07	52.0	0.0	13.01	-40.0	0	0.4	43.4	48.8	0	5	0	0	6	72.1	68.9	0.0
2017 08/14 02:00	42.6	101.6	270.4	8.5	30.07	52.0	0.0	13.02	-40.1	0	0.6	42.5	48.5	0	5	0	0	6	72.1	68.9	0.0
2017 08/14 02:15	41.3	101.4	289.2	9.8	30.07	51.8	0.0	12.99	-40.0	0	0.5	42.5	48.3	0	5	0	0	6	72.1	68.9	0.0
2017 08/14 02:30	42.0	101.4	289.3	11.1	30.07	51.8	0.0	13.03	-40.0	0	0.6	41.6	48.0	0	5	0	0	6	72.1	68.9	0.0
2017 08/14 02:45	42.0	101.4	267.6	10.5	30.06	51.6	0.0	13.01	-40.0	0	0.4	41.6	45.3	0	5	0	0	6	72.1	68.9	0.0
2017 08/14 03:00	41.7	101.4	251.7	11.7	30.06	51.5	0.0	13.00	-39.9	0	0.4	40.7	44.2	0	5	0	0	6	72.1	68.9	0.0
2017 08/14 03:15	41.7	101.4	262.3	10.0	30.05	51.4	0.0	13.01	-40.0	0	0.2	40.7	44.2	0	5	0	0	6	72.1	68.9	0.0
2017 08/14 03:30	41.5	101.5	257.7	9.5	30.05	51.1	0.0	12.99	-39.9	0	0.4	40.7	43.5	0	5	0	0	6	72.1	68.9	0.0
2017 08/14 03:45	41.7	101.5	250.8	9.7	30.05	51.1	-0.3	13.00	-40.0	0	0.2	40.7	45.6	0	5	0	0	6	72.1	68.9	0.0
2017 08/14 04:00	41.3	101.4	261.9	11.9	30.04	50.9	0.0	12.99	-39.9	0	0.4	39.8	43.5	0	5	0	0	6	72.1	68.9	0.0
2017 08/14 04:15	40.4	101.4	274.5	11.9	30.04	50.7	0.0	13.01	-39.9	0	0.4	39.8	43.3	0	5	0	0	6	72.1	68.9	0.0
2017 08/14 04:30	41.1	101.4	270.8	13.9	30.03	50.6	0.0	12.98	-40.0	0	0.2	39.8	43.2	0	5	0	0	6	72.1	68.9	0.0
2017 08/14 04:45	41.0	101.4	277.6	13.3	30.03	50.4	0.0	13.00	-39.9	0	0.3	39.8	42.2	0	5	0	0	6	72.1	68.9	0.0
2017 08/14 05:00	41.2	101.5	279.1	13.4	30.02	50.3	0.0	13.01	-40.1	0	0.2	39.8	42.1	0	5	0	0	6	72.1	68.9	0.0
2017 08/14 05:15	40.6	101.5	294.2	15.9	30.02	50.1	0.0	12.97	-40.1	0	0.4	38.9	42.1	0	5	0	0	6	72.1	68.9	0.0
2017 08/14 05:30	40.0	101.4	295.5	14.2	30.02	50.0	0.7	13.01	-40.1	0	-0.2	38.9	44.7	0	5	0	0	6	72.1	68.9	0.0
2017 08/14 05:45	40.3	101.4	300.7	17.2	30.01	49.9	7.5	13.00	-40.1	0	-0.0	38.9	43.2	0	5	0	0	6	72.1	68.9	0.0
2017 08/14 06:00	39.5	101.5	297.6	17.1	30.01	49.7	102.5	12.99	-40.0	0	0.2	38.9	43.9	0	5	0	0	6	72.1	68.9	0.0
2017 08/14 06:15	39.8	101.4	301.0	16.9	30.00	49.5	368.2	12.99	-40.0	0	0.1	38.9	44.5	0	5	0	0	6	72.1	68.9	0.0
2017 08/14 06:30	39.8	101.4	310.5	11.9	30.01	49.4	580.2	13.00	-40.0	0	0.3	38.9	44.7	0	5	0	0	6	72.1	68.9	0.0
2017 08/14 06:45	39.5	101.3	318.9	12.7	30.00	49.3	671.2	13.01	-40.1	0	0.2	39.8	45.4	0	5	0	0	6	72.1	68.9	0.0
2017 08/14 07:00	40.3	93.9	308.6	11.3	30.00	49.1	714.0	12.99	-40.0	0	0.4	39.8	46.0	0	5	0	0	6	72.1	68.9	0.0
2017 08/14 07:15	41.4	92.4	299.2	7.9	30.01	48.9	749.0	13.00	-40.0	0	0.2	40.7	46.2	0	5	0	0	6	72.1	68.9	0.0
2017 08/14 07:30	42.1	66.9	325.3	8.3	30.00	48.9	772.0	12.99	-39.9	0	0.2	40.7	46.8	0	5	0	0	6	72.1	68.9	0.0
2017 08/14 07:45	44.2	57.5	349.8	9.5	30.00	48.7	789.0	13.01	-39.9	0	0.2	42.5	47.6	0	5	0	0	6	72.1	68.9	0.0
2017 08/14 08:00	41.5	86.2	295.8	8.7	30.00	48.6	812.0	13.02	-40.0	0	0.2	43.4	47.4	0	5	0	0	6	72.1	68.9	0.0
2017 08/14 08:15	44.4	43.2	347.3	6.5	30.01	48.5	814.0	13.01	-40.0	0	0.4	43.4	47.9	0	5	0	0	6	72.1	68.9	0.0
2017 08/14 08:30	47.5	40.7	7.7	2.1	30.00	48.5	817.0	13.01	-40.0	0	0.4	45.2	49.7	0	5	0	0	6	72.1	68.9	0.0
2017 08/14 08:45	47.8	38.7	359.6	2.0	30.01	48.4	817.0	12.99	-40.0	0	0.4	46.1	50.3	0	5	0	0	6	72.1	68.9	0.0
2017 08/14 09:00	48.4	69.8	134.2	2.0	30.01	48.3	827.0	13.02	-40.0	0	0.5	46.1	50.7	0	5	0	0	6	72.1	68.9	0.0
2017 08/14 09:15	48.4	47.2	289.9	0.0	30.01	48.3	833.0	12.99	-40.0	0	0.4	47.9	51.6	0	5	0	0	6	72.1	68.9	0.0
2017 08/14 09:30	49.7	72.5	153.3	4.7	30.01	48.3	838.0	12.99	-40.0	0	0.4	48.8	52.6	0	5	0	0	6	72.1	68.9	0.0
2017 08/14 09:45	51.1	64.1	125.2	3.5	30.02	48.3	843.0	13.02	-39.9	0	0.8	48.8	53.7	0	5	0	0	6	72.1	68.9	0.0
2017 08/14 10:00	50.3	65.6	83.5	6.7	30.01	48.5	857.0	13.03	-40.1	0	0.3	50.6	54.6	0	5	0	0	6	72.1	68.9	0.0
2017 08/14 10:15	50.9	66.4	269.7	1.9	30.02	48.5	852.0	13.01	-39.9	0	0.1	51.5	55.1	0	5	0	0	6	72.1	68.9	0.0
2017 08/14 10:30	48.8	69.0	272.2	5.2	30.02	48.6	856.0	13.03	-40.0	0	0.1	52.4	55.9	0	5	0	0	6	72.1	68.9	0.0
2017 08/14 10:45	49.5	65.2	295.9	4.6	30.02	48.7	860.0	13.01	-40.0	0	-0.1	52.4	56.4	0	5	0	0	6	72.1	68.9	0.0
2017 08/14 11:00	49.0	64.2	281.4	4.7	30.02	48.9	865.0	12.99	-40.0	0	0.3	53.3	57.6	0	5	0	0	6	72.1	68.9	0.0
2017 08/14 11:15	51.0	58.6	314.4	5.2	30.02	48.9	861.0	13.00	-40.0	0	0.2	54.2	58.3	0	5	0	0	6	72.1	68.9	0.0
2017 08/14 11:30	50.8	62.5	341.2	5.5	30.02	49.1	869.0	13.01	-40.0	0	-0.2	56.0	59.4	0	5	0	0	6	72.1	68.9	0.0
2017 08/14 11:45	53.7	58.8	326.7	3.8	30.02	49.3	875.0	12.99	-40.0	0	0.0	57.8	60.1	0	5	0	0	6	72.1	68.9	0.0
2017 08/14 12:00	53.5	57.8	325.7	3.6	30.02	49.5	867.0	13.00	-40.0	0	-0.2	57.8	60.9	0	5	0	0	6	72.1	68.9	0.0
2017 08/14 12:15	53.9	58.7	300.8	5.2	30.03	49.7	848.0	13.01	-40.0	0	0.0	57.8	61.2	0	5	0	0	6	72.1	68.9	0.0
2017 08/14 12:30	52.8	59.7	308.4	5.6	30.03	49.9	862.0	12.99	-39.9	0	-0.1	57.8	61.3	0	5	0	0	6	72.1	68.9	0.0
2017 08/14 12:45	54.4	55.5	320.2	3.2	30.03	50.1	858.0	12.99	-39.9	0	1.1	58.7	63.0	0	5	0	0	6	72.1	68.9	0.0
2017 08/14 13:00	54.7	42.1	315.8	7.5	30.03	50.3	862.0	13.02	-39.9	0	0.5	58.7	64.2	0	5	0	0	6	72.1	68.9	0.0
2017 08/14 13:15	56.7	43.3	307.7	5.6	30.03	50.5	872.0	13.01	-39.9	0	-0.2	63.2	64.3	0	5	0	0	6	72.1	68.9	0.0
2017 08/14 13:30	59.4	30.5	277.9	7.8	30.03	50.7	873.0	13.02	-39.9	0	-0.4	61.4	66.0	0	5	0	0	6	72.1	68.9	0.0
2017 08/14 13:45	57.3	34.9	318.2	10.6	30.03	51.0	879.0	12.99	-40.0	0	-0.1	62.3	67.3	0	5	0	0	6	72.1	68.9	0.0
2017 08/14 14:00	58.2	30.9	253.9	11.5	30.04	51.4	882.0	13.01	-40.0	0	0.4	61.4	65.6	0	5	0	0	6	72.1	68.9	0.0
2017 08/14 14:15	58.6	32.1	322.4	7.2	30.04	51.6	873.0	13.02	-39.9	0	0.2	61.4	65.9	0	5	0	0	6	72.1	68.9	0.0
2017 08/14 14:30	58.4	33.7	295.4	6.0	30.04	51.9	860.0	13.02	-40.0	0	-0.3	61.4	65.2	0	5	0	0	6	72.1	68.9	0.0
2017 08/14 14:45	59.2	37.3	287.7	8.7	30.04	52.2	877.0	13.03	-40.1	0	0.0	62.3	66.9	0	5	0	0	6	72.1	68.9	0.0
2017 08/14 15:00	60.1	38.0	244.7	8.7	30.04	52.4	863.0	13.00	-40.1	0	-0.5	62.3	66.3	0	5	0	0	6	72.1	68.9	0.0
2017 08/14 15:15	59.4	44.5	279.7	9.8	30.05	52.9	879.0	13.00	-40.1	0	-0.4	64.1	67.0	0	5	0	0	6	72.1	68.9	0.0
2017 08/14 15:30	59.7	47.2	242.3	13.8	30.04	53.1	885.0	13.01	-40.0	0	-0.1	64.1	68.1	0	5	0	0	6	72.1	68.9	0.0
2017 08/14 15:45	59.2	46.5	236.3	11.3	30.04	53.5	879.0	13.03	-40.0	0	0.2	61.4	66.5	0	5	0	0	6	72.3	64.4	0.0
2017 08/14 16:00	58.7	48.7	312.4	7.7	30.04	53.7	877.0	12.99	-39.9	0	0.4	61.4	66.9	0	5	0	0	6	72.3	64.5	0.0
2017 08/14 16:15	58.7	48.8	308.6	8.8	30.04	54.1	876.0	13.01	-40.0	0	0.4	62.3	66.3	0	5	0	0	6	72.6	64.5	0.0
2017 08/14 16:30	59.0	50.8	260.1	9.1	30.05	54.4	879.0	12.99	-40.0	0	-0.5	61.4	67.3	0	5	0	0	6	73.1	64.5	0.0
2017 08/14 16:45	58.4	54.1	318.3	10.6	30.05	54.8	875.0	13.00	-40.0	0	-0.1	61.4	68.2	0	5	0	0	6	73.4	64.6	0.0
2017 08/14 17:00	56.9	55.8	311.7	9.1	30.05	55.0	859.0	13.01	-40.1	0	-0.2	59.6	65.1	0	5	0	0	6	73.5	64.6	0.0
2017 08/14 17:15	56.4	57.6	296.2	9.9	30.06	55.4	862.0	13.00	-39.9	0	0.1	58.7	64.8	0	5	0	0	6	73.4	64.6	0.0
2017 08/14 17:30	55.9	59.6	278.9	8.8	30.06	55.9	858.0	13.00	-39.9	0	0.0	57.8	64.0	0	5	0	0	6	73.0	64.4	0.0
2017 08/14 17:45	56.1	60.4	247.3	9.2	30.06	56.1	931.0	13.02	-40.0	0	0.2	58.7	64.5	0	5	0	0	6	72.8	64.2	0.0
2017 08/14 18:00	55.5	60.9	296.5	10.6	30.06	56.5	937.0	13.03	-39.9	0	0.1	58.7	64.2	0	5	0	0	6	72.9	64.1	0.0
2017 08/14 18:15	54.4	63.6	293.1	11.3	30.06	56.9	879.0	13.00	-40.0	0	0.1	57.8	63.0	0	5	0	0	6	72.7	64.0	0.0
2017 08/14 18:30	54.5	65.6	295.4	10.0	30.07	57.1	906.0	13.00	-40.0	0	0.3	56.9	62.9	0	5	0	0	6	72.5	63.9	0.0
2017 08/14 18:45	54.9	66.4	299.1	8.6	30.07	57.6	956.0	13.01	-40.0	0	0.1	57.8	62.2	0	5	0	0	6	72.1	63.8	0.0
2017 08/14 19:00	55.6	67.7	322.9	8.6	30.07	57.8	957.0	13.01	-39.9	0	0.1	56.9	61.5	0	5	0	0	6	72.1	63.7	0.0
2017 08/14 19:15	55.1	68.6	307.8	10.2	30.07	58.1	862.0	13.01	-40.0	0	0.0	56.9	60.7	0	5	0	0	6	72.0	63.6	0.0
2017 08/14 19:30	54.0	72.3	270.4	10.8	30.07	58.4	843.0	13.00	-39.9	0	0.1	55.1	60.7	0	5	0	0	6	71.7	63.3	0.0
2017 08/14 19:45	53.7	73.6	289.2	6.7	30.08	58.6	824.0	12.99	-39.9	0	0.2	54.2	60.3	0	5	0	0	6	71.2	63.2	0.0
2017 08/14 20:00	52.2	78.2	274.2	11.4	30.08	58.9	716.0	13.02	-40.0	0	0.1	53.3	59.5	0	5	0	0	6	70.6	63.0	0.0
2017 08/14 20:15	51.5	80.3	251.3	10.1	30.08	59.1	518.0	13.00	-40.0	0	0.0	52.4	58.6	0	5	0	0	6	70.2	62.8	0.0
2017 08/14 20:30	50.5	83.4	213.6	9.9	30.08	59.4	206.2	13.00	-39.9	0	-0.0	51.5	57.8	0	5	0	0	6	69.5	62.5	0.0
2017 08/14 20:45	50.4	87.2	268.9	10.2	30.09	59.5	38.0	13.01	-40.0	0	-0.0	50.6	57.3	0	5	0	0	6	69.0	62.3	0.0
2017 08/14 21:00	49.3	90.2	269.9	11.3	30.09	59.6	4.4	13.02	-40.0	0	0.2	49.7	56.7	0	5	0	0	6	68.4	62.0	0.0
2017 08/14 21:15	49.3	93.0	269.2	14.8	30.09	59.9	0.3	13.01	-39.9	0	-0.2	49.7	56.1	0	5	0	0	6	68.0	61.9	0.0
2017 08/14 21:30	48.5	94.2	265.5	12.4	30.09	59.9	0.0	13.02	-40.0	0	0.2	48.8	55.7	0	5	0	0	6	67.4	61.7	0.0
2017 08/14 21:45	48.0	91.3	259.7	12.0	30.10	60.0	-0.3	13.00	-40.0	0	0.2	47.9	54.6	0	5	0	0	6	66.9	61.4	0.0
2017 08/14 22:00	48.0	92.2	255.0	10.9	30.10	60.1	-0.3	13.01	-40.0	0	0.2	47.9	55.0	0	5	0	0	6	66.4	61.2	0.0
2017 08/14 22:15	48.3	95.7	257.2	10.4	30.10	60.1	0.0	13.01	-40.0	0	0.2	47.9	54.9	0	5	0	0	6	66.0	61.0	0.0
2017 08/14 22:30	48.2	93.3	250.0	9.9	30.10	60.1	0.0	13.00	-39.9	0	0.0	47.9	54.1	0	5	0	0	6	65.6	60.9	0.0
2017 08/14 22:45	47.6	95.5	227.7	10.6	30.10	60.1	-0.3	13.01	-40.0	0	0.2	47.9	53.1	0	5	0	0	6	65.1	60.6	0.0
2017 08/14 23:00	48.2	87.5	223.3	11.2	30.09	60.0	0.0	13.02	-40.0	0	0.0	47.9	53.8	0	5	0	0	6	64.9	60.4	0.0
2017 08/14 23:15	48.2	90.5	237.8	11.8	30.09	59.9	0.0	13.02	-39.9	0	0.0	47.9	53.4	0	5	0	0	6	64.7	60.3	0.0
2017 08/14 23:30	48.9	72.9	238.8	11.2	30.09	59.9	0.0	13.03	-39.9	0	0.2	47.0	53.0	0	5	0	0	6	64.5	60.1	0.0
2017 08/14 23:45	51.3	55.9	241.7	13.1	30.08	59.7	0.0	13.00	-40.0	0	0.3	46.1	52.1	0	5	0	0	6	63.9	60.0	0.0
2017 08/15 00:00	49.0	81.1	241.2	12.4	30.08	59.6	0.0	13.01	-39.9	0	0.4	46.1	51.2	0	5	0	0	6	63.6	59.7	0.0
2017 08/15 00:15	49.1	83.0	244.8	11.8	30.08	59.4	0.0	13.00	-39.9	0	0.6	45.2	51.3	0	5	0	0	6	63.2	59.5	0.0
2017 08/15 00:30	48.8	82.4	230.9	10.2	30.08	59.4	-0.3	13.01	-40.0	0	0.6	45.2	48.9	0	5	0	0	6	62.9	59.3	0.0
2017 08/15 00:45	49.6	76.8	238.9	10.9	30.08	59.3	0.0	13.00	-40.0	0	-0.0	46.1	47.8	0	5	0	0	6	62.5	59.0	0.0
2017 08/15 01:00	49.3	82.4	253.9	11.2	30.07	59.0	0.0	13.00	-39.9	0	0.3	46.1	47.0	0	5	0	0	6	61.9	58.7	0.0
2017 08/15 01:15	50.3	61.2	246.4	12.9	30.07	59.0	0.0	12.99	-39.9	0	0.2	45.2	46.5	0	5	0	0	6	61.4	58.5	0.0
2017 08/15 01:30	50.5	50.0	251.9	12.5	30.06	58.8	0.0	13.01	-39.9	0	0.4	45.2	46.0	0	5	0	0	6	61.1	58.2	0.0
2017 08/15 01:45	50.0	51.6	253.5	12.8	30.06	58.6	0.0	13.01	-39.9	0	-0.4	45.2	45.3	0	5	0	0	6	60.7	57.9	0.0
2017 08/15 02:00	50.6	46.2	251.7	12.2	30.06	58.4	-0.3	13.00	-40.0	0	0.3	46.1	43.4	0	5	0	0	6	60.5	57.6	0.0
2017 08/15 02:15	51.2	43.8	240.8	11.8	30.06	58.2	0.0	13.02	-40.0	0	-0.2	46.1	42.5	0	5	0	0	6	60.1	57.4	0.0
2017 08/15 02:30	50.9	36.4	245.9	11.3	30.06	58.0	-0.3	13.00	-39.9	0	0.2	45.2	41.8	0	5	0	0	6	59.9	57.2	0.0
2017 08/15 02:45	50.8	36.2	245.1	11.2	30.06	57.9	-0.3	13.01	-40.1	0	0.3	46.1	40.6	0	5	0	0	6	59.4	56.8	0.0
2017 08/15 03:00	50.6	43.0	239.7	11.8	30.06	57.6	-0.3	13.01	-40.1	0	-0.1	46.1	40.3	0	5	0	0	6	59.0	56.6	0.0
2017 08/15 03:15	50.8	38.9	237.7	12.0	30.06	57.5	0.0	13.01	-39.9	0	0.0	46.1	39.7	0	5	0	0	6	58.7	56.4	0.0
2017 08/15 03:30	49.5	51.2	231.4	12.6	30.05	57.3	0.0	13.01	-40.0	0	0.0	47.0	39.5	0	5	0	0	6	58.3	56.1	0.0
2017 08/15 03:45	49.9	47.4	231.2	11.5	30.05	57.1	0.0	13.01	-40.1	0	0.4	47.9	38.9	0	5	0	0	6	58.0	55.8	0.0
2017 08/15 04:00	49.8	56.7	244.0	10.9	30.05	56.9	0.0	13.00	-39.9	0	0.1	47.0	38.4	0	5	0	0	6	57.7	55.6	0.0
2017 08/15 04:15	50.0	31.4	245.1	11.5	30.04	56.7	0.0	13.00	-39.9	0	0.2	46.1	38.1	0	5	0	0	6	57.4	55.4	0.0
2017 08/15 04:30	50.8	23.6	251.6	9.7	30.04	56.5	0.0	13.02	-40.0	0	0.2	46.1	37.8	0	5	0	0	6	57.3	55.1	0.0
2017 08/15 04:45	50.1	32.2	257.3	8.3	30.04	56.3	-0.3	12.99	-40.0	0	0.2	47.0	37.5	0	5	0	0	6	56.7	54.9	0.0
2017 08/15 05:00	50.1	24.4	262.0	6.6	30.03	56.1	-0.3	13.01	-40.1	0	0.0	47.0	36.9	0	5	0	0	6	56.5	54.7	0.0
2017 08/15 05:15	50.5	21.1	261.6	5.3	30.03	55.9	0.0	13.01	-39.9	0	0.0	47.0	36.9	0	5	0	0	6	56.2	54.5	0.0
2017 08/15 05:30	50.8	17.5	261.6	4.1	30.03	55.6	0.3	13.02	-40.1	0	0.0	47.9	36.6	0	5	0	0	6	55.9	54.2	0.0
2017 08/15 05:45	51.2	17.6	305.9	5.8	30.03	55.4	6.1	13.02	-40.0	0	0.0	47.9	36.4	0	5	0	0	6	55.6	54.0	0.0
2017 08/15 06:00	52.5	17.5	312.8	6.7	30.03	55.2	85.8	13.01	-40.0	0	0.0	47.9	36.2	0	5	0	0	6	55.2	53.8	0.0
2017 08/15 06:15	51.6	19.9	324.7	6.6	30.03	55.0	366.4	13.00	-40.0	0	0.1	48.8	36.2	0	5	0	0	6	54.9	53.7	0.0
2017 08/15 06:30	52.2	22.3	327.1	7.1	30.03	54.8	571.7	13.00	-39.9	0	0.3	48.8	36.6	0	5	0	0	6	54.7	53.3	0.0
2017 08/15 06:45	52.7	22.7	331.1	6.5	30.03	54.7	663.6	13.00	-40.0	0	0.1	49.7	37.0	0	5	0	0	6	54.3	53.1	0.0
2017 08/15 07:00	52.5	25.1	314.3	7.4	30.03	54.6	711.0	13.02	-40.0	0	-0.0	50.6	37.6	0	5	0	0	6	54.2	52.9	0.0
2017 08/15 07:15	52.1	25.3	308.6	6.9	30.03	54.4	742.0	13.00	-39.9	0	0.3	50.6	37.7	0	5	0	0	6	54.0	52.8	0.0
2017 08/15 07:30	52.2	26.3	312.1	5.8	30.04	54.2	762.0	13.00	-40.0	0	0.2	51.5	39.7	0	5	0	0	6	53.8	52.5	0.0
2017 08/15 07:45	51.7	26.7	308.7	6.4	30.04	54.1	776.0	13.00	-40.0	0	0.0	52.4	42.1	0	5	0	0	6	53.8	52.5	0.0
2017 08/15 08:00	52.2	24.7	306.6	6.7	30.04	53.9	786.0	13.03	-39.9	0	-0.4	54.2	46.1	0	5	0	0	6	53.9	52.5	0.0
2017 08/15 08:15	51.9	27.2	305.9	6.5	30.04	53.9	795.0	12.99	-40.0	0	0.3	53.3	53.3	0	5	0	0	6	53.9	52.5	0.0
2017 08/15 08:30	52.0	26.3	312.8	5.1	30.04	53.9	803.0	13.01	-39.9	0	0.0	54.2	55.3	0	5	0	0	6	53.4	52.5	0.0
2017 08/15 08:45	52.2	27.2	297.4	6.1	30.05	53.9	811.0	13.01	-39.9	0	0.1	54.2	56.7	0	5	0	0	6	53.4	52.8	0.0
2017 08/15 09:00	52.1	26.7	303.4	7.8	30.05	53.8	821.0	13.00	-39.9	0	0.3	55.1	57.4	0	5	0	0	6	53.7	53.1	0.0
2017 08/15 09:15	52.6	30.1	265.8	6.5	30.06	53.9	835.0	13.01	-39.9	0	0.2	56.9	58.6	0	5	0	0	6	53.9	53.7	0.0
2017 08/15 09:30	54.2	33.6	276.6	6.0	30.06	53.9	843.0	12.99	-40.0	0	0.0	57.8	59.4	0	5	0	0	6	54.5	54.5	0.0
2017 08/15 09:45	53.8	28.6	288.5	6.6	30.06	53.9	841.0	13.01	-40.1	0	0.3	58.7	60.7	0	5	0	0	6	55.4	55.1	0.0
2017 08/15 10:00	53.7	31.0	272.9	6.0	30.07	53.9	843.0	13.00	-39.9	0	-0.4	57.8	61.6	0	5	0	0	6	56.7	55.9	0.0
2017 08/15 10:15	54.8	31.9	292.4	2.2	30.07	54.1	850.0	12.99	-40.0	0	0.7	58.7	62.1	0	5	0	0	6	57.7	56.5	0.0
2017 08/15 10:30	55.6	34.5	297.8	3.9	30.07	54.1	849.0	13.01	-40.0	0	-0.2	59.6	62.3	0	5	0	0	6	59.1	57.3	0.0
2017 08/15 10:45	55.6	31.9	302.5	5.1	30.07	54.3	843.0	13.01	-40.0	0	0.2	59.6	62.5	0	5	0	0	6	60.3	57.9	0.0
2017 08/15 11:00	56.1	33.7	305.9	5.1	30.08	54.4	841.0	13.02	-40.1	0	0.3	58.7	63.9	0	5	0	0	6	61.5	58.6	0.0
2017 08/15 11:15	55.3	37.7	292.4	4.7	30.08	54.6	835.0	13.02	-40.0	0	0.3	59.6	63.1	0	5	0	0	6	62.7	59.5	0.0
2017 08/15 11:30	57.0	38.3	290.3	5.3	30.09	54.7	862.0	13.01	-39.9	0	-0.1	62.3	64.0	0	5	0	0	6	64.0	60.4	0.0
2017 08/15 11:45	58.6	32.1	291.6	7.4	30.09	54.8	854.0	13.02	-40.0	0	0.1	65.0	66.1	0	5	0	0	6	65.6	61.4	0.0
2017 08/15 12:00	61.6	27.7	249.5	6.2	30.09	55.0	863.0	13.03	-40.1	0	0.3	65.0	67.2	0	5	0	0	6	66.9	62.2	0.0
2017 08/15 12:15	60.9	27.4	273.8	9.9	30.09	55.2	860.0	13.01	-39.9	0	0.7	65.0	67.6	0	5	0	0	6	68.3	62.9	0.0
2017 08/15 12:30	61.5	25.6	311.9	9.5	30.10	55.4	858.0	13.01	-39.9	0	0.4	65.0	68.8	0	5	0	0	6	69.9	63.7	0.0
2017 08/15 12:45	63.3	26.3	311.7	10.1	30.10	55.6	858.0	12.99	-40.0	0	0.1	64.1	68.7	0	5	0	0	6	71.3	64.5	0.0
2017 08/15 13:00	62.4	29.7	309.1	5.2	30.10	55.9	860.0	13.01	-40.0	0	0.3	65.9	68.8	0	5	0	0	6	72.3	65.4	0.0
2017 08/15 13:15	61.3	26.2	269.0	10.9	30.11	56.1	863.0	13.00	-40.0	0	-0.2	67.7	69.6	0	5	0	0	6	73.1	65.8	0.0
2017 08/15 13:30	62.2	25.2	323.0	14.1	30.11	56.3	864.0	13.01	-39.9	0	-0.6	68.6	71.3	0	5	0	0	6	73.8	66.3	0.0
2017 08/15 13:45	62.4	26.9	297.2	13.3	30.12	56.6	855.0	12.99	-40.0	0	0.0	66.8	69.9	0	5	0	0	6	74.5	66.6	0.0
2017 08/15 14:00	62.2	28.2	297.6	13.3	30.13	56.9	866.0	13.00	-40.0	0	0.0	66.8	70.4	0	5	0	0	6	74.9	67.0	0.0
2017 08/15 14:15	63.3	32.6	277.1	13.2	30.13	57.1	872.0	13.01	-39.9	0	-0.2	67.7	71.0	0	5	0	0	6	75.0	67.2	0.0
2017 08/15 14:30	63.2	32.0	325.0	12.4	30.13	57.4	875.0	13.00	-40.1	0	0.4	67.7	72.1	0	5	0	0	6	75.3	67.5	0.0
2017 08/15 14:45	62.1	33.4	318.3	8.5	30.14	57.8	866.0	13.02	-40.0	0	0.7	65.0	70.8	0	5	0	0	6	75.1	67.6	0.0
2017 08/15 15:00	62.5	33.3	280.3	11.2	30.14	58.0	871.0	13.02	-40.0	0	0.3	67.7	71.0	0	5	0	0	6	75.5	67.6	0.0
2017 08/15 15:15	60.6	38.3	314.3	13.2	30.14	58.2	857.0	13.00	-39.9	0	-0.2	65.9	70.4	0	5	0	0	6	75.6	67.6	0.0
2017 08/15 15:30	60.8	44.9	288.1	16.0	30.15	58.6	869.0	13.01	-40.0	0	-0.1	64.1	69.0	0	5	0	0	6	75.5	67.5	0.0
2017 08/15 15:45	59.3	50.3	290.3	13.4	30.16	58.9	847.0	13.00	-40.0	0	0.0	62.3	67.7	0	5	0	0	6	75.1	67.3	0.0
2017 08/15 16:00	59.6	52.1	277.0	8.8	30.17	59.2	839.0	12.99	-40.0	0	0.0	62.3	66.9	0	5	0	0	6	74.8	67.0	0.0
2017 08/15 16:15	59.3	55.4	314.1	6.1	30.18	59.4	841.0	13.02	-40.0	0	0.2	60.5	66.3	0	5	0	0	6	74.5	67.0	0.0
2017 08/15 16:30	57.2	61.0	298.1	8.9	30.18	59.9	855.0	13.02	-40.0	0	-0.0	61.4	65.8	0	5	0	0	6	74.3	66.8	0.0
2017 08/15 16:45	57.6	61.3	293.0	9.9	30.18	60.1	861.0	13.00	-40.0	0	0.2	60.5	66.1	0	5	0	0	6	74.3	66.7	0.0
2017 08/15 17:00	59.4	58.1	168.8	8.5	30.19	60.4	876.0	13.00	-40.0	0	0.5	62.3	68.4	0	5	0	0	6	74.3	66.6	0.0
2017 08/15 17:15	59.8	53.1	282.9	9.2	30.20	60.7	844.0	12.99	-40.0	0	0.1	62.3	67.3	0	5	0	0	6	74.6	66.5	0.0
2017 08/15 17:30	58.9	48.1	292.7	9.3	30.20	60.9	859.0	13.02	-40.0	0	0.2	61.4	65.9	0	5	0	0	6	74.5	66.5	0.0
2017 08/15 17:45	62.0	48.0	282.8	5.6	30.20	61.2	936.0	13.03	-40.1	0	0.5	62.3	68.8	0	5	0	0	6	74.7	66.3	0.0
2017 08/15 18:00	59.9	47.0	259.2	8.0	30.21	61.6	958.0	13.02	-39.9	0	0.3	63.2	69.7	0	5	0	0	6	75.0	66.3	0.0
2017 08/15 18:15	59.4	43.7	272.2	13.3	30.21	61.8	959.0	12.99	-40.0	0	0.3	63.2	69.9	0	5	0	0	6	75.3	66.1	0.0
2017 08/15 18:30	61.1	45.9	324.3	9.7	30.21	62.0	959.0	13.00	-39.9	0	-0.2	61.4	67.3	0	5	0	0	6	75.0	66.1	0.0
2017 08/15 18:45	59.6	48.9	296.2	12.8	30.22	62.4	957.0	13.02	-40.0	0	-0.0	61.4	65.4	0	5	0	0	6	74.9	65.9	0.0
2017 08/15 19:00	58.7	53.2	230.0	8.5	30.23	62.6	957.0	13.00	-40.0	0	-0.2	60.5	64.6	0	5	0	0	6	74.8	65.8	0.0
2017 08/15 19:15	58.8	55.3	302.8	5.9	30.23	62.9	829.0	13.01	-40.0	0	-0.4	60.5	64.0	0	5	0	0	6	74.7	65.7	0.0
2017 08/15 19:30	57.4	57.8	208.0	8.1	30.23	63.1	815.0	13.02	-39.9	0	0.3	57.8	63.1	0	5	0	0	6	74.3	65.5	0.0
2017 08/15 19:45	56.2	61.3	295.8	11.3	30.24	63.3	782.0	13.02	-40.1	0	0.2	56.0	62.1	0	5	0	0	6	73.7	65.1	0.0
2017 08/15 20:00	55.5	64.6	297.2	9.7	30.24	63.6	700.0	12.99	-39.9	0	-0.2	55.1	61.1	0	5	0	0	6	72.8	64.9	0.0
2017 08/15 20:15	54.1	68.1	278.2	9.8	30.24	63.8	491.4	12.99	-39.9	0	0.4	54.2	60.4	0	5	0	0	6	72.2	64.6	0.0
2017 08/15 20:30	53.2	70.6	293.9	13.1	30.25	64.0	202.5	12.99	-39.9	0	0.1	52.4	59.4	0	5	0	0	6	71.5	64.2	0.0
2017 08/15 20:45	52.7	72.9	302.2	14.6	30.25	64.2	36.3	12.99	-40.0	0	0.0	52.4	58.8	0	5	0	0	6	70.8	63.9	0.0
2017 08/15 21:00	52.3	73.9	302.8	15.8	30.25	64.3	4.1	12.99	-39.9	0	0.2	51.5	58.3	0	5	0	0	6	70.1	63.6	0.0
2017 08/15 21:15	51.6	74.5	308.5	13.7	30.26	64.4	0.3	13.02	-40.0	0	0.1	51.5	57.7	0	5	0	0	6	69.6	63.3	0.0
2017 08/15 21:30	51.7	71.5	313.6	16.6	30.26	64.4	0.0	13.02	-40.0	0	0.3	50.6	57.3	0	5	0	0	6	69.0	63.0	0.0
2017 08/15 21:45	51.3	70.7	314.8	15.9	30.26	64.5	0.0	13.00	-39.9	0	0.2	50.6	56.7	0	5	0	0	6	68.4	62.7	0.0
2017 08/15 22:00	51.6	71.9	303.3	15.5	30.27	64.5	0.0	13.01	-40.0	0	-0.2	49.7	56.1	0	5	0	0	6	67.7	62.4	0.0
2017 08/15 22:15	50.6	71.9	302.2	17.4	30.27	64.5	-0.3	12.99	-40.0	0	0.2	49.7	56.1	0	5	0	0	6	67.4	62.2	0.0
2017 08/15 22:30	50.5	70.5	307.0	17.5	30.27	64.4	-0.3	13.00	-40.0	0	0.3	49.7	55.2	0	5	0	0	6	66.8	61.9	0.0
2017 08/15 22:45	50.5	69.7	302.8	16.0	30.27	64.4	0.0	13.01	-40.0	0	0.2	48.8	55.5	0	5	0	0	6	66.4	61.5	0.0
2017 08/15 23:00	51.0	70.6	297.1	15.2	30.28	64.3	0.0	13.02	-40.0	0	0.3	48.8	55.2	0	5	0	0	6	65.9	61.3	0.0
2017 08/15 23:15	49.7	71.2	298.9	17.8	30.27	64.1	0.0	13.01	-39.9	0	0.2	48.8	54.0	0	5	0	0	6	65.6	61.1	0.0
2017 08/15 23:30	50.7	64.0	309.0	16.7	30.27	64.0	0.0	13.00	-39.9	0	0.3	48.8	54.6	0	5	0	0	6	65.1	60.7	0.0
2017 08/15 23:45	51.3	62.9	295.5	15.3	30.27	63.9	-0.3	13.01	-40.0	0	0.4	49.7	55.6	0	5	0	0	6	64.7	60.5	0.0
2017 08/16 00:00	50.6	62.0	304.4	15.5	30.27	63.7	0.0	13.01	-39.9	0	0.2	49.7	54.9	0	5	0	0	6	64.2	60.2	0.0
2017 08/16 00:15	51.8	58.5	303.9	14.0	30.27	63.5	0.0	13.01	-40.0	0	0.2	49.7	54.2	0	5	0	0	6	64.1	60.0	0.0
2017 08/16 00:30	51.8	56.6	307.9	14.8	30.27	63.3	0.0	12.99	-39.9	0	0.2	49.7	53.9	0	5	0	0	6	63.8	59.7	0.0
2017 08/16 00:45	52.3	47.9	312.7	15.2	30.27	63.2	-0.3	12.99	-40.0	0	0.1	49.7	55.0	0	5	0	0	6	63.2	59.4	0.0
2017 08/16 01:00	51.1	51.8	314.7	16.0	30.27	63.0	0.0	13.01	-40.0	0	0.1	48.8	54.6	0	5	0	0	6	62.9	59.2	0.0
2017 08/16 01:15	51.2	56.5	310.4	16.4	30.27	62.7	0.0	12.99	-39.9	0	0.0	49.7	54.3	0	5	0	0	6	62.4	59.0	0.0
2017 08/16 01:30	53.7	34.4	333.8	12.8	30.26	62.4	0.0	13.00	-39.9	0	0.4	49.7	54.7	0	5	0	0	6	61.9	58.7	0.0
2017 08/16 01:45	52.4	46.2	311.6	16.7	30.26	62.3	-0.3	13.01	-40.0	0	0.1	49.7	54.8	0	5	0	0	6	61.8	58.5	0.0
2017 08/16 02:00	53.2	41.7	315.4	14.6	30.26	62.0	0.0	12.99	-40.0	0	0.3	49.7	53.7	0	5	0	0	6	61.3	58.2	0.0
2017 08/16 02:15	53.3	25.5	324.5	11.5	30.26	61.8	0.0	13.01	-40.0	0	-0.0	49.7	54.2	0	5	0	0	6	61.1	58.0	0.0
2017 08/16 02:30	54.6	25.4	318.7	10.9	30.26	61.6	-0.3	13.01	-40.0	0	-0.1	50.6	55.5	0	5	0	0	6	60.7	57.7	0.0
2017 08/16 02:45	53.8	36.5	304.7	13.2	30.26	61.3	-0.3	12.99	-39.9	0	0.4	50.6	55.7	0	5	0	0	6	60.4	57.5	0.0
2017 08/16 03:00	51.5	51.1	296.2	13.4	30.26	61.0	0.0	12.99	-39.9	0	0.1	50.6	55.0	0	5	0	0	6	60.2	57.3	0.0
2017 08/16 03:15	51.3	52.5	299.3	14.2	30.25	60.8	0.0	13.02	-39.9	0	0.2	49.7	55.3	0	5	0	0	6	60.1	57.2	0.0
2017 08/16 03:30	52.7	38.3	304.9	18.4	30.25	60.5	0.0	13.01	-39.9	0	0.2	50.6	55.6	0	5	0	0	6	59.6	56.9	0.0
2017 08/16 03:45	51.0	50.7	303.1	18.8	30.25	60.3	0.0	13.00	-39.9	0	0.4	49.7	55.5	0	5	0	0	6	59.5	56.7	0.0
2017 08/16 04:00	51.6	44.6	309.8	15.3	30.25	60.1	0.0	12.99	-40.0	0	0.2	48.8	54.7	0	5	0	0	6	59.2	56.5	0.0
2017 08/16 04:15	50.6	49.9	310.8	17.2	30.25	59.9	0.0	12.99	-40.0	0	0.1	48.8	54.6	0	5	0	0	6	59.1	56.4	0.0
2017 08/16 04:30	51.4	40.9	315.9	14.0	30.25	59.6	0.0	12.99	-40.0	0	0.4	48.8	54.8	0	5	0	0	6	58.7	56.1	0.0
2017 08/16 04:45	51.8	41.7	303.3	13.8	30.25	59.4	0.0	12.99	-40.0	0	0.1	49.7	55.2	0	5	0	0	6	58.4	56.0	0.0
2017 08/16 05:00	52.2	39.5	309.2	15.5	30.24	59.2	0.0	13.01	-39.9	0	0.2	49.7	54.4	0	5	0	0	6	58.3	55.8	0.0
2017 08/16 05:15	49.4	62.8	303.9	15.3	30.24	58.9	0.0	12.99	-40.0	0	0.4	48.8	54.6	0	5	0	0	6	58.0	55.7	0.0
2017 08/16 05:30	51.2	52.9	309.7	14.9	30.24	58.6	0.7	13.01	-40.0	0	0.1	47.9	54.1	0	5	0	0	6	57.9	55.6	0.0
2017 08/16 05:45	51.2	51.7	302.4	16.5	30.24	58.4	6.1	13.03	-40.1	0	0.4	47.9	54.0	0	5	0	0	6	57.7	55.4	0.0
2017 08/16 06:00	49.6	57.3	308.6	17.1	30.24	58.2	87.5	12.98	-40.0	0	0.2	47.9	53.4	0	5	0	0	6	57.6	55.2	0.0
2017 08/16 06:15	50.6	48.4	310.8	15.9	30.25	58.0	376.6	12.99	-40.0	0	0.4	47.9	53.4	0	5	0	0	6	57.5	55.1	0.0
2017 08/16 06:30	51.6	51.9	310.5	17.8	30.25	57.8	584.2	13.02	-40.1	0	0.3	47.9	53.8	0	5	0	0	6	57.3	54.9	0.0
2017 08/16 06:45	54.2	62.1	329.0	17.8	30.24	57.6	670.4	13.02	-39.9	0	0.2	48.8	55.2	0	5	0	0	6	56.9	54.8	0.0
2017 08/16 07:00	53.9	53.5	325.6	17.1	30.24	57.4	717.0	13.00	-40.1	0	-0.0	49.7	54.9	0	5	0	0	6	56.8	54.6	0.0
2017 08/16 07:15	52.7	61.7	331.9	17.4	30.25	57.1	747.0	12.99	-39.9	0	0.0	50.6	55.2	0	5	0	0	6	56.8	54.6	0.0
2017 08/16 07:30	53.6	59.4	323.6	14.0	30.26	56.9	767.0	13.02	-39.9	0	0.2	50.6	56.1	0	5	0	0	6	56.7	54.6	0.0
2017 08/16 07:45	50.8	54.5	317.1	15.5	30.26	56.9	780.0	13.01	-40.1	0	-0.1	52.4	55.9	0	5	0	0	6	56.6	54.6	0.0
2017 08/16 08:00	51.6	59.2	329.5	15.7	30.26	56.7	790.0	13.00	-40.1	0	-0.1	54.2	57.0	0	5	0	0	6	56.7	54.8	0.0
2017 08/16 08:15	53.8	60.1	346.9	15.4	30.26	56.5	797.0	13.02	-40.0	0	0.0	55.1	58.9	0	5	0	0	6	56.7	54.9	0.0
2017 08/16 08:30	54.5	57.7	330.2	16.8	30.26	56.5	804.0	13.03	-40.0	0	-0.1	56.9	60.4	0	5	0	0	6	56.7	55.0	0.0
2017 08/16 08:45	53.0	54.8	299.2	11.4	30.27	56.5	810.0	12.99	-40.0	0	0.3	56.0	59.7	0	5	0	0	6	56.7	55.2	0.0
2017 08/16 09:00	53.3	49.9	313.6	8.3	30.27	56.3	817.0	13.00	-39.9	0	0.5	56.0	60.2	0	5	0	0	6	56.8	55.7	0.0

Where:
  YYYY   = Year
  MM/DD  = Month / Date
  hh:mm  = Hour  : Minute
  Temp   = Temperature outside       (F)              @ 5720', on tower
  Humid  = Humidity    outside       (%)              @ 5720'
  W_dir  = Wind direction / Azimuth  (degrees)        @ 5720'
  W_spd  = Wind speed                (miles per hour) @ 5720'
  Barom  = Sea-level air pressure    (inches of mercury)
  T_int  = Temperature (internal)    (F)              - inside barometer case
  Light  = Outside light level       (no units)       - 0 = dark, 1000 = bright
  Power  = Power supply rail         (Volts)
  Temp2  = Temperature (back-up)     (F)
  P2     = datalogger counter channel "P2" (to be static burst counter)
  Snow   = Snow depth,  mid-mountain (inches)         @ 5010'
  T_mid  = Temperature, mid-mountain (F)              @ 5010'
  T_base = Temperature @ south lodge (F)              @ 4700'
  Precip = Precipitation total       (inches)         @ 4800' (near US20 mp81)

Notes:
1999 07/17
   Barometric data in this listing should have an additional
   temperature correction applied to it, based on the sensor's
   internal temperature:

   P_corrected = Barom + (-0.0223 * T_int) + 0.8887  (inches Hg)

2004 07/03
   The air pressure correction equation has not been checked
   in a long time.  The air pressure reading is best used only
   to observe general trends.

2006 11/18
   Added precipitation gauge.  Depth is precipitation equivalent in water,
   for the water year (beginning October 1st) at the Hogg Pass
   SnoTel station.

2011 03/11
  Fixed data column title bug from adding "T_base" after "T_mid".
  If you notice a bug like this it will get fixed a whole lot sooner
  if you tell me about it.